GFSFLT1_925_spd_000.txt.gz
Wind_Speed
16 17 11 11 8 9 9 10 11 11 10 11 8 10 12 9 10 12 10 9 5 4 4 2 2 4 3 7 9 11 13 15
8 9 11 10 9 9 11 12 12 12 12 11 12 12 14 13 14 12 9 10 8 6 4 2 3 4 7 8 9 10 15 16
7 4 8 9 11 13 14 15 15 15 15 15 17 16 17 20 17 18 15 12 11 9 9 5 5 4 8 11 10 10 12 16
5 0 4 7 12 14 15 17 18 19 20 19 19 19 17 13 15 12 16 19 17 14 13 10 8 6 8 10 13 16 18 14
4 0 3 6 14 15 16 18 20 21 20 22 23 19 18 22 24 24 29 26 21 17 13 12 10 8 10 12 12 13 17 18
6 7 7 5 6 12 16 18 21 23 23 24 26 25 22 21 16 14 11 10 8 7 8 11 12 9 10 12 16 18 19 19
5 10 8 11 7 7 12 18 23 25 26 27 26 28 24 15 18 7 5 4 4 1 1 3 5 8 10 13 16 18 20 23
5 7 11 10 12 15 13 19 23 25 25 27 30 26 25 23 19 11 9 6 2 3 8 10 11 13 16 20 21 23 23 25
6 6 8 10 13 17 18 22 25 24 27 30 29 30 24 20 17 10 6 2 4 7 6 10 12 14 19 21 23 24 24 25
7 7 11 11 13 16 23 28 26 25 26 28 25 22 19 11 7 7 3 2 4 3 6 10 16 18 20 22 24 24 24 26
6 6 12 17 23 21 26 24 21 21 21 12 6 6 7 6 5 3 3 3 8 10 11 15 19 21 23 24 25 24 25 27
5 4 9 15 19 23 27 26 18 16 14 10 5 6 6 7 6 5 2 7 12 17 19 18 21 23 25 25 26 27 28 29
11 13 14 16 16 25 31 25 17 11 10 3 5 6 7 7 7 2 5 11 19 17 20 22 24 26 26 27 28 28 28 29
15 17 13 16 23 31 32 24 16 7 4 5 6 6 7 7 6 8 12 17 16 20 22 24 26 26 27 28 29 29 30 30
16 12 14 18 24 29 24 24 17 5 6 8 10 10 10 8 8 8 15 17 19 21 24 26 27 28 27 27 27 29 29 28
17 17 16 22 25 27 20 26 13 6 8 9 6 5 9 12 9 13 15 18 22 24 25 27 26 25 25 25 23 22 22 25
19 18 19 25 22 21 19 22 11 4 4 5 10 11 10 8 12 13 19 22 22 24 25 25 26 24 23 26 27 22 21 24
16 13 19 24 21 14 16 17 12 8 8 5 8 11 12 11 11 17 19 22 22 23 24 24 24 25 23 24 25 24 23 26
19 19 22 19 15 13 15 11 9 2 3 11 14 9 7 10 15 18 20 21 22 23 23 23 23 22 26 30 34 32 28 29

GFSFLT1_925_spd_003.txt.gz
Wind_Speed
14 17 16 17 13 9 7 6 9 10 11 11 10 9 11 12 17 15 14 11 9 9 8 8 3 5 6 4 6 8 10 15
19 17 18 13 9 5 5 6 8 11 14 12 14 13 15 16 18 15 20 16 13 12 10 9 9 6 3 2 6 9 12 12
11 11 9 8 7 4 6 11 14 16 19 20 20 19 21 23 23 20 22 18 17 16 13 14 10 8 6 6 6 6 8 11
5 6 6 9 9 11 13 15 16 19 24 25 22 23 25 20 14 21 24 23 23 22 17 13 12 8 5 5 7 11 15 9
5 5 7 9 14 16 15 15 16 17 19 28 28 28 25 31 30 24 21 26 27 23 20 17 10 5 1 1 3 9 14 16
6 2 1 4 5 11 18 19 19 18 20 23 29 32 33 25 22 24 15 14 24 23 16 9 6 3 3 3 6 11 15 18
6 7 7 5 4 7 11 16 19 22 24 26 30 31 36 32 22 18 12 11 12 12 13 9 9 5 5 11 16 19 22 28
2 3 4 6 11 13 15 15 18 24 28 31 34 37 38 38 35 25 19 17 14 9 1 6 9 9 10 17 20 28 29 28
3 2 4 12 14 18 20 24 26 26 27 18 18 28 39 40 37 22 20 19 13 8 9 5 8 12 15 23 28 30 29 31
3 5 11 12 16 16 19 23 28 28 19 17 18 16 15 14 13 18 16 14 14 9 8 8 12 17 20 24 25 30 30 31
6 8 7 13 16 17 21 27 29 25 10 9 3 6 11 14 14 17 15 11 6 5 7 15 22 19 20 25 29 30 30 30
7 7 10 13 16 20 25 32 29 23 9 5 3 6 8 10 12 10 5 2 3 5 12 14 16 22 26 28 30 31 30 31
8 14 17 19 19 25 27 31 23 20 9 6 7 10 11 12 13 10 8 6 5 8 11 16 22 23 25 27 29 30 32 32
8 10 15 18 19 24 24 28 24 23 9 8 10 11 11 13 5 2 4 5 10 12 19 20 22 25 27 30 31 32 32 31
7 10 15 15 19 24 23 18 24 27 12 12 12 12 11 7 6 3 6 9 14 16 19 24 25 27 30 29 28 30 30 26
9 12 10 17 22 23 12 19 24 23 13 10 11 9 4 3 3 1 9 14 18 20 21 22 27 23 24 23 19 18 18 20
13 12 16 18 21 9 15 17 20 11 5 8 7 7 3 4 5 12 16 15 17 18 21 20 22 24 20 16 16 21 24 25
12 11 15 18 10 10 17 19 17 8 1 2 8 9 4 10 15 9 13 15 17 18 21 23 25 17 15 21 29 30 28 27
7 14 17 9 12 18 21 19 7 5 8 8 1 6 10 3 7 11 14 13 18 23 24 21 16 23 26 29 29 28 29 31

GFSFLT1_925_spd_006.txt.gz
Wind_Speed
6 11 12 17 17 13 9 6 4 7 9 9 12 16 14 16 16 20 20 17 14 15 13 14 11 12 12 10 8 6 8 10
16 23 25 22 16 10 5 5 7 9 11 14 15 19 19 21 20 19 24 22 20 17 18 15 16 14 15 13 9 8 9 9
13 16 13 11 11 9 7 6 8 12 15 19 20 23 24 24 25 24 26 28 28 25 23 21 19 18 17 14 10 7 7 7
6 8 11 10 10 8 9 9 11 14 19 21 24 25 25 27 29 28 31 31 32 31 30 26 23 21 21 17 12 9 4 2
2 5 8 12 12 12 13 13 15 17 20 24 29 33 28 36 38 36 32 26 35 34 32 28 23 21 15 11 8 4 2 2
4 3 2 8 9 11 14 15 18 18 21 23 26 30 39 42 40 36 35 32 32 36 32 29 22 20 16 9 1 4 9 11
5 6 6 5 4 2 6 10 13 16 19 23 28 32 38 37 39 41 36 30 25 29 28 22 18 15 13 8 6 8 14 18
4 5 6 10 10 12 13 14 17 21 24 27 31 34 30 33 36 33 28 22 18 19 20 14 13 10 9 9 12 17 28 27
1 7 11 12 12 13 14 15 23 27 27 29 30 24 22 22 23 25 21 20 20 18 17 10 6 10 12 17 24 26 23 22
8 8 10 12 15 17 22 26 31 31 26 23 20 23 23 18 12 6 16 26 23 17 11 7 10 16 28 21 17 19 23 27
7 8 10 8 12 17 23 29 29 25 23 18 17 14 7 5 10 22 22 18 11 1 8 17 13 6 9 14 19 24 26 28
5 8 12 18 16 13 19 21 20 20 22 15 13 9 9 16 19 16 12 7 1 8 3 4 8 11 15 20 21 23 24 24
4 5 11 16 17 15 26 21 18 22 29 19 16 12 14 17 15 13 9 8 7 4 3 8 13 16 17 20 22 25 28 30
3 6 13 18 24 23 23 16 15 21 25 20 16 15 17 17 13 9 7 2 4 6 9 14 17 20 24 24 26 27 27 28
6 7 12 16 21 21 22 12 18 21 23 16 14 11 13 9 9 6 1 4 6 9 14 17 18 20 22 22 21 21 19 17
7 7 8 15 19 22 12 16 21 25 18 9 8 9 6 4 2 3 16 12 12 12 14 14 16 16 19 17 16 14 17 23
11 9 12 15 18 15 15 22 22 19 13 5 6 4 3 1 11 11 14 15 10 9 11 14 18 19 17 11 16 23 28 30
12 10 15 16 11 13 19 18 14 6 2 4 6 8 8 9 9 11 12 7 8 13 17 18 17 14 15 20 21 26 27 27
13 15 16 13 14 19 15 9 8 9 9 8 8 6 8 9 7 6 9 12 15 17 16 16 16 18 16 23 25 26 27 28

GFSFLT1_925_spd_009.txt.gz
Wind_Speed
8 9 12 16 19 18 13 11 10 9 7 9 11 14 16 17 19 22 21 22 21 20 20 19 19 18 18 17 16 12 10 9
8 9 14 19 18 15 13 10 9 10 8 10 13 17 19 21 21 23 25 27 27 26 25 24 23 24 23 22 20 17 15 11
8 15 16 15 14 12 12 10 9 9 9 10 14 17 22 24 25 27 29 30 30 33 33 31 30 30 28 26 26 21 18 13
6 9 10 9 12 14 12 11 11 12 14 15 20 23 25 28 32 33 36 35 35 39 40 39 36 35 36 34 31 26 19 11
4 7 9 10 11 8 12 14 14 15 15 17 21 26 26 35 36 37 40 39 38 41 44 46 43 36 33 31 26 22 15 11
5 7 6 6 8 8 10 11 12 12 15 18 22 25 28 32 34 37 38 38 39 39 40 44 40 28 22 17 14 10 7 7
2 5 4 9 9 11 12 9 10 14 19 22 27 31 35 32 31 31 33 33 31 31 35 28 23 17 17 9 5 5 6 9
3 1 7 10 11 9 8 11 18 24 29 29 29 30 30 27 27 28 28 27 22 14 16 21 22 18 11 6 13 15 18 21
5 8 8 7 6 10 14 19 25 28 27 26 25 26 28 29 29 24 21 12 12 20 23 16 12 8 14 17 17 17 17 14
5 5 7 9 15 16 17 22 27 25 22 25 27 29 29 30 29 19 9 9 20 19 12 9 12 15 23 21 13 9 14 18
4 4 8 17 18 20 19 24 23 20 21 23 28 29 27 23 16 9 12 19 13 6 3 14 18 12 7 10 13 15 16 17
4 6 13 20 20 21 18 20 19 16 17 24 27 30 20 11 11 13 16 9 2 5 8 3 4 8 11 14 14 15 17 20
5 11 17 19 22 21 21 19 17 17 23 27 30 31 18 14 14 12 10 5 2 2 3 3 6 10 13 14 17 18 20 22
7 10 13 17 21 24 21 24 17 21 28 33 31 28 15 14 11 9 4 1 2 5 8 10 12 12 14 15 16 18 18 19
7 8 14 19 21 20 20 16 16 25 27 26 25 16 10 10 4 3 6 10 12 13 13 13 13 13 14 15 18 18 16 14
7 11 12 18 19 21 20 15 22 23 23 19 13 4 3 4 5 9 12 16 13 18 14 12 12 16 18 17 15 12 16 21
8 9 14 16 19 23 18 21 20 15 11 5 4 5 6 9 11 12 13 19 16 10 12 16 17 15 12 9 15 19 23 27
12 11 15 21 22 15 20 21 13 8 6 6 9 9 7 10 13 11 8 8 10 13 13 14 14 14 16 15 19 24 26 28
14 17 17 18 19 22 18 14 12 5 12 13 12 11 11 12 12 10 9 10 11 13 14 14 14 15 18 23 25 25 26 26

GFSFLT1_925_spd_015.txt.gz
Wind_Speed
5 8 7 8 11 14 15 14 13 12 11 9 10 9 10 12 14 17 19 21 22 24 27 30 29 28 28 27 25 22 22 18
2 1 4 8 10 13 14 14 11 10 8 8 8 8 12 15 18 22 23 24 24 26 28 30 30 30 33 32 28 24 21 21
3 3 4 6 6 6 6 3 4 6 9 10 12 16 15 18 20 23 24 26 28 27 25 26 27 25 28 34 30 24 20 20
3 5 6 9 7 5 5 6 7 8 8 10 11 11 13 14 18 23 25 22 21 24 24 24 25 24 26 29 29 29 28 21
10 10 11 9 8 8 9 13 14 13 12 12 13 11 12 14 17 20 26 26 27 27 27 26 25 22 23 23 23 25 24 26
9 11 11 14 16 17 14 13 15 15 16 16 14 12 11 17 22 26 28 27 28 27 25 25 23 19 17 15 15 13 15 22
7 9 11 12 13 13 13 14 14 17 17 15 14 14 19 21 25 29 31 29 29 28 22 17 13 6 4 9 10 10 7 6
8 10 9 9 12 13 14 16 16 19 18 19 20 21 23 24 28 29 29 28 21 18 11 4 6 12 12 10 9 8 10 9
6 3 1 5 9 13 16 16 16 19 21 20 19 20 24 28 26 28 26 23 16 6 3 6 7 5 5 6 8 9 8 9
2 3 6 8 13 16 18 20 19 17 19 18 18 21 26 26 28 28 25 19 6 5 5 1 1 5 7 10 7 3 1 3
7 11 13 12 13 16 18 15 15 15 17 14 17 22 23 25 27 24 15 5 6 4 5 4 6 7 8 5 4 3 4 6
9 13 16 15 14 15 16 15 15 15 15 16 22 24 24 24 19 13 5 4 2 2 3 7 10 11 13 12 8 6 6 8
11 14 14 13 12 17 18 16 15 17 15 20 19 17 18 16 8 4 2 3 3 4 6 12 12 14 12 13 11 9 9 11
11 13 14 14 18 18 18 18 16 17 19 17 14 14 15 10 7 6 6 6 6 8 10 11 12 13 15 13 12 13 13 14
10 10 13 13 16 16 15 16 20 18 15 9 9 9 10 6 7 8 9 11 11 13 15 16 16 11 12 12 13 13 13 13
9 8 11 12 14 16 16 19 17 14 8 5 6 9 8 7 8 11 12 10 12 12 10 10 11 11 9 12 14 15 17 19
8 10 12 12 15 16 19 17 12 9 4 4 6 7 7 8 11 13 13 13 12 11 12 13 13 11 13 15 16 18 21 22
9 9 12 16 17 19 20 15 10 5 3 3 6 9 12 12 12 12 13 12 12 12 12 11 11 12 17 19 19 19 19 19
12 13 14 15 18 17 12 6 8 7 5 8 11 11 10 12 12 12 12 11 12 13 12 10 13 15 19 20 19 18 19 20

GFSFLT1_925_spd_018.txt.gz
Wind_Speed
6 6 6 5 4 4 7 8 5 3 3 5 6 6 6 6 7 8 9 11 13 14 16 19 19 20 22 22 22 22 22 22
4 5 5 4 4 3 3 4 1 0 2 3 5 5 7 8 9 10 12 13 14 16 18 20 20 21 23 24 25 25 26 25
12 12 12 12 10 8 6 4 4 3 2 3 5 8 8 9 8 12 11 14 15 15 17 19 20 21 21 23 23 25 27 25
10 12 12 11 10 8 6 7 7 8 7 5 6 7 8 10 13 15 15 15 16 17 18 20 20 21 23 22 22 24 25 26
9 9 10 11 12 13 12 10 9 8 8 6 7 8 10 12 14 16 21 18 18 20 19 18 19 20 21 21 20 21 23 25
8 10 11 12 12 11 9 8 8 8 7 7 7 6 7 9 12 19 22 19 20 20 19 18 17 15 14 11 10 11 14 17
8 8 8 9 8 8 7 8 7 9 10 9 10 12 11 13 17 21 23 25 24 22 19 14 10 7 4 3 6 8 7 7
7 6 6 7 9 9 9 11 12 12 10 7 6 12 14 17 21 23 27 27 25 22 15 9 5 2 2 4 4 4 5 8
6 6 8 8 8 8 10 12 13 11 10 12 13 15 17 21 24 26 26 25 21 14 7 4 2 2 2 4 5 4 7 3
5 8 8 10 10 9 10 14 17 16 15 16 15 16 19 22 23 23 23 21 15 7 5 4 3 5 6 8 6 6 3 4
8 12 13 13 13 10 13 17 17 14 14 14 13 17 19 19 20 19 17 14 7 6 6 5 4 5 8 9 9 9 8 9
10 14 12 12 9 11 15 15 13 13 13 13 16 18 16 15 16 14 10 6 6 7 5 4 7 12 12 12 12 12 12 12
11 13 11 10 12 15 15 14 15 15 15 17 17 14 13 14 12 10 8 7 6 6 7 10 12 12 12 12 12 11 12 13
12 13 12 12 15 13 13 14 15 18 20 18 15 13 13 14 10 9 9 9 9 11 10 10 12 12 13 13 15 15 16 17
11 11 11 16 12 13 14 16 19 19 16 16 14 13 14 9 14 12 13 14 15 14 14 13 11 11 12 12 14 16 17 17
10 10 14 12 11 14 16 19 18 14 14 15 10 8 8 9 10 13 14 15 15 14 12 11 11 12 10 12 14 17 19 20
10 11 12 12 14 15 18 19 14 12 12 11 7 9 11 13 14 14 14 14 14 14 13 13 14 13 12 15 16 19 21 21
10 11 12 15 14 17 18 16 13 12 13 8 9 11 12 12 14 16 15 15 14 15 15 14 13 14 15 20 19 20 21 21
11 14 16 14 15 18 17 17 15 14 13 10 10 10 12 13 15 14 15 15 15 15 14 14 16 16 16 18 20 20 20 21

GFSFLT1_925_spd_021.txt.gz
Wind_Speed
9 3 1 2 3 2 2 5 6 3 3 4 6 6 7 7 8 9 8 11 11 13 15 16 18 20 21 22 22 24 25 26
12 6 6 8 6 5 5 5 3 3 4 5 6 6 7 10 10 8 10 10 12 15 17 19 19 19 20 22 23 23 25 25
12 14 15 13 11 9 7 5 4 3 3 5 5 7 9 10 9 9 12 10 13 14 16 18 22 21 22 22 23 24 24 24
10 13 13 12 11 9 8 7 6 7 6 5 7 9 9 11 11 18 18 19 18 17 17 17 22 23 23 21 22 23 23 25
9 11 11 11 10 9 8 6 5 6 8 5 6 8 12 15 17 18 19 22 21 19 20 20 20 22 22 21 21 19 20 24
8 10 10 10 8 7 6 5 6 6 6 6 9 13 15 17 17 17 19 21 20 22 21 21 20 19 18 15 11 10 11 12
7 6 5 7 6 6 6 7 8 8 10 10 11 13 14 16 17 19 19 21 23 22 22 19 18 15 11 6 6 6 7 6
5 5 5 4 6 7 9 11 13 12 12 12 13 14 16 17 19 20 23 24 24 24 20 17 14 7 4 4 4 5 6 9
3 4 5 8 9 10 10 13 15 17 16 16 16 17 18 19 20 23 24 23 23 21 16 12 7 3 2 6 5 6 7 6
4 7 9 11 12 13 11 14 19 20 20 18 17 17 18 20 21 22 23 23 22 18 12 8 7 5 6 7 9 12 9 10
7 10 13 13 15 14 14 17 18 17 16 15 16 18 20 21 21 22 22 20 18 14 11 10 5 5 9 15 16 13 13 13
9 13 13 14 13 14 17 20 18 18 17 17 18 20 19 18 18 19 18 17 16 15 13 9 8 10 12 12 14 13 14 16
10 12 12 13 14 17 18 15 14 15 17 19 20 18 17 17 19 16 17 15 15 15 12 11 13 16 14 12 13 12 15 17
13 15 18 16 16 17 13 14 16 19 20 20 20 18 16 16 17 16 14 15 16 17 16 15 16 14 18 16 17 16 18 20
10 14 19 17 15 11 13 15 18 19 18 18 18 14 14 13 12 12 14 16 18 20 19 20 19 18 18 18 13 17 19 21
14 15 16 15 13 13 15 16 18 18 17 16 17 10 13 12 14 15 16 18 19 19 19 19 18 18 17 9 13 19 22 24
13 16 16 15 16 16 16 18 18 16 16 17 15 12 14 15 15 16 18 18 18 18 18 19 19 19 14 14 15 19 23 25
12 14 15 16 18 16 19 18 19 19 17 18 14 13 15 15 16 17 17 18 18 19 19 18 18 19 14 16 21 21 24 24
14 16 18 19 21 19 21 21 22 22 23 14 14 12 14 15 15 16 17 18 18 19 19 18 19 20 16 19 19 22 23 24

GFSFLT1_925_spd_024.txt.gz
Wind_Speed
17 21 15 14 13 9 5 8 9 5 5 0 4 6 6 8 6 3 4 8 5 8 14 16 18 19 20 20 22 22 24 25
24 20 19 16 11 14 15 11 10 5 3 4 7 10 10 9 7 8 6 11 12 13 15 18 19 22 22 23 21 22 25 24
18 19 21 18 14 13 12 12 10 9 9 6 6 7 6 9 10 5 12 11 12 15 19 23 18 21 22 23 23 24 23 21
12 16 16 15 15 14 13 11 9 10 8 7 7 8 9 10 12 17 17 15 22 23 19 18 19 19 18 22 24 25 20 20
12 14 13 14 14 12 10 7 7 7 8 7 9 13 14 17 17 19 22 19 20 17 21 22 21 19 19 21 16 13 14 17
9 12 14 13 10 8 6 6 3 2 4 7 9 12 15 16 17 16 20 15 21 22 23 24 22 20 20 13 8 12 15 16
8 8 13 14 8 5 5 8 10 10 7 8 9 10 12 14 16 18 16 20 22 23 24 22 24 19 7 5 8 10 9 12
6 7 10 6 4 3 4 8 12 13 15 12 9 9 12 14 17 17 21 23 22 24 24 21 12 11 9 8 9 7 11 10
2 3 4 6 8 10 11 11 13 15 13 13 15 14 12 14 15 19 19 19 20 22 14 12 10 7 6 4 5 8 12 14
4 6 6 7 7 9 9 10 14 14 16 14 13 14 16 14 15 16 15 18 18 17 19 15 9 8 7 9 11 16 16 15
7 9 13 15 17 13 13 13 15 15 15 13 14 15 16 15 16 16 16 14 16 17 15 9 7 10 9 12 14 14 15 16
6 12 13 12 11 12 14 14 13 13 15 17 18 18 16 13 12 16 17 17 15 17 16 13 13 15 16 19 13 13 12 14
10 13 14 13 13 11 16 11 11 13 17 18 17 17 11 15 17 19 19 17 17 17 18 16 15 15 13 14 17 16 16 15
8 8 9 16 16 17 12 12 12 14 17 17 19 17 11 14 13 14 14 15 17 19 19 20 17 19 18 18 19 17 13 19
10 11 16 17 16 14 12 15 11 15 17 17 17 16 8 9 11 14 16 18 18 20 20 20 20 20 20 18 13 13 16 18
13 12 15 15 16 15 16 14 17 14 16 16 16 19 5 7 10 14 17 18 17 18 20 20 20 20 13 14 15 13 16 20
14 14 17 16 15 16 15 16 16 16 15 16 20 7 9 10 11 14 16 16 15 17 18 19 20 18 16 15 16 18 18 20
13 14 16 16 18 20 22 17 19 18 24 21 20 10 12 10 12 13 15 13 15 15 17 17 16 16 16 17 20 22 19 21
13 15 16 16 18 22 22 20 22 21 21 25 25 10 11 9 11 13 10 12 15 17 16 11 13 15 19 24 24 21 20 21

GFSFLT1_925_spd_027.txt.gz
Wind_Speed
24 30 30 30 28 25 22 20 19 14 11 7 2 1 1 4 3 4 2 4 7 10 13 15 15 19 23 23 25 26 29 30
29 33 32 31 28 26 22 19 16 17 15 11 9 10 8 8 7 6 9 6 6 10 13 15 19 18 18 23 25 24 27 28
23 28 28 25 24 23 20 16 13 13 13 12 10 11 13 10 14 14 15 18 17 15 15 17 17 17 18 18 20 25 23 14
13 21 22 22 21 19 16 13 12 10 10 8 8 8 11 15 21 22 19 17 15 18 20 21 20 19 17 19 16 12 10 12
15 19 17 15 15 14 11 7 5 7 9 8 8 8 12 15 14 16 15 14 18 21 24 25 26 24 22 17 8 10 11 14
10 17 15 12 10 9 8 11 7 4 3 5 6 6 8 7 10 11 14 18 23 26 28 26 25 21 17 10 9 12 13 14
14 17 14 11 9 8 4 6 10 14 11 8 8 7 6 8 7 10 15 19 21 22 23 20 16 13 11 11 10 8 9 11
7 14 13 11 5 4 5 7 7 9 8 10 10 9 9 11 12 15 16 18 22 21 16 17 17 11 9 8 9 11 14 13
5 9 9 9 9 8 5 6 9 9 9 11 10 12 10 10 11 15 16 16 14 12 13 13 13 10 9 12 15 16 14 17
7 13 17 15 14 11 8 6 6 9 11 11 12 11 12 14 13 14 11 10 13 15 15 12 10 8 7 8 11 15 16 15
8 14 12 10 9 8 7 6 8 10 11 13 14 15 11 8 8 12 15 18 20 14 17 20 15 14 15 17 20 18 16 16
6 10 11 11 10 8 12 6 7 9 12 13 13 13 10 7 9 14 16 18 14 15 16 19 16 16 15 15 17 17 17 18
6 9 16 16 15 14 8 7 6 8 10 9 9 10 11 12 13 13 15 11 12 14 16 17 17 16 16 14 14 15 5 6
11 17 17 18 17 15 7 10 6 11 10 10 11 12 13 15 8 6 6 9 12 12 13 15 17 18 18 17 12 8 11 15
8 10 16 18 16 13 11 7 13 20 15 13 16 17 17 15 9 8 10 8 11 10 10 14 16 18 17 11 13 15 16 18
7 6 12 18 15 14 17 16 24 21 10 15 17 24 25 11 9 12 12 9 9 7 9 13 15 13 11 13 14 15 19 22
5 8 13 15 13 16 19 23 18 11 18 22 25 14 10 23 21 8 12 7 4 9 10 13 11 9 10 12 18 21 22 17
7 10 17 15 15 14 16 21 23 26 26 22 20 21 16 11 11 16 12 8 4 9 12 10 6 11 12 18 22 21 18 20
9 17 17 20 13 15 19 19 21 24 17 23 19 20 17 21 16 16 18 4 9 12 6 4 8 12 16 19 19 20 19 20

GFSFLT1_925_spd_033.txt.gz
Wind_Speed
15 21 22 22 24 23 15 5 9 5 11 17 15 18 19 16 14 11 8 9 10 11 13 15 16 17 18 19 20 21 22 19
20 29 33 32 22 15 16 14 14 10 12 11 15 20 17 14 12 9 9 10 13 15 14 14 16 19 20 20 22 23 21 21
16 27 28 26 24 21 19 19 16 15 16 15 12 11 10 7 6 7 9 9 7 9 11 14 19 22 21 18 16 15 15 14
8 17 23 22 21 20 18 16 14 11 9 8 6 4 3 1 1 3 4 6 8 12 16 19 18 16 15 14 13 12 12 13
9 14 18 20 18 17 16 15 12 10 7 3 2 4 5 3 5 3 4 8 12 15 16 14 14 14 14 13 10 9 9 10
7 14 19 18 16 14 14 13 11 10 7 6 6 6 5 5 2 2 7 11 13 12 10 10 10 12 11 7 5 4 4 6
7 13 13 14 13 12 10 10 8 6 5 5 6 7 8 5 0 6 11 12 11 12 13 12 12 10 9 8 4 4 11 9
6 9 7 8 7 6 7 6 8 6 5 4 4 5 4 0 5 9 11 12 11 11 10 13 11 10 8 7 8 9 9 15
5 5 6 6 8 6 5 8 6 6 7 6 6 4 2 6 8 11 11 11 10 11 13 10 9 8 8 8 10 11 12 12
7 10 9 7 5 3 3 4 6 8 7 5 1 6 9 11 13 13 16 15 15 13 10 9 8 9 10 10 11 12 11 11
7 10 9 7 4 2 2 4 4 3 2 6 9 11 14 15 15 17 18 17 16 14 11 10 9 9 9 12 13 12 13 13
6 9 7 5 3 3 2 5 3 4 6 9 16 18 15 14 18 19 23 22 16 11 10 9 11 12 9 10 11 11 11 10
6 6 6 5 6 5 4 4 6 8 10 14 16 13 13 17 21 23 24 21 15 13 14 11 14 13 12 10 11 10 6 7
3 3 4 4 5 3 2 6 7 9 11 9 9 13 14 14 17 21 21 18 17 18 11 17 18 14 11 11 8 7 8 10
1 2 3 7 5 6 7 7 7 9 11 11 10 10 14 16 17 18 19 18 18 15 17 13 17 16 13 9 7 8 10 15
2 2 5 10 8 5 6 8 9 11 12 8 10 12 16 17 17 19 20 23 21 19 14 14 16 10 11 6 7 13 17 19
2 5 6 7 9 7 7 7 10 11 7 8 9 13 15 14 18 22 24 23 20 15 11 6 6 10 5 9 14 17 19 18
4 3 8 6 6 6 7 10 12 11 6 7 9 11 16 17 21 19 19 18 14 6 2 4 3 3 7 11 13 15 15 17
5 5 4 4 4 7 10 11 12 6 6 8 11 15 17 19 20 18 17 6 3 3 0 1 2 7 9 11 13 15 16 19

GFSFLT1_925_spd_036.txt.gz
Wind_Speed
10 7 7 12 19 24 21 15 7 6 10 15 17 17 17 14 12 11 10 10 9 10 12 12 14 16 19 20 18 17 16 13
15 19 23 25 24 21 14 7 15 23 19 17 15 16 13 10 8 6 5 5 6 8 9 12 17 20 20 17 15 15 13 16
13 20 23 25 23 23 22 21 20 18 17 13 8 8 7 6 4 3 4 5 8 12 15 18 19 18 17 15 14 13 10 14
6 14 19 22 24 24 23 20 16 11 8 7 6 5 3 3 2 1 4 6 10 13 15 15 14 15 16 14 13 11 9 8
6 11 15 19 17 16 15 14 12 10 8 5 4 4 4 4 3 2 4 8 13 15 14 14 16 17 15 13 11 9 7 6
7 11 13 10 11 12 11 10 8 5 3 3 4 4 2 4 3 2 6 11 13 14 11 11 11 11 9 9 9 7 5 8
4 12 13 7 6 9 9 8 6 5 4 3 4 3 3 3 1 5 10 13 14 14 13 12 12 14 10 10 8 6 10 9
5 8 12 14 14 8 8 5 5 3 2 2 2 3 2 3 6 10 14 14 16 16 14 14 15 11 9 8 9 11 12 12
2 4 7 7 9 9 6 6 4 3 2 2 1 3 5 8 11 11 14 16 17 18 19 18 14 12 10 10 10 12 13 14
5 7 9 9 9 6 5 4 3 4 3 3 5 7 9 12 13 14 19 20 22 22 21 19 16 15 14 12 13 14 13 15
7 11 10 9 8 4 2 1 5 5 6 6 7 12 14 14 14 17 20 19 21 23 20 17 15 12 15 19 17 15 14 14
5 8 8 7 6 4 1 4 3 4 7 9 12 16 16 14 16 20 22 23 24 22 18 14 9 16 16 12 19 15 14 13
5 6 6 6 4 3 4 1 6 6 8 13 12 10 11 11 13 13 16 20 21 21 18 15 16 14 16 15 14 16 12 10
3 5 5 4 4 4 3 3 4 6 7 9 10 8 9 11 14 17 18 20 23 20 14 13 16 15 12 15 13 11 9 11
2 2 4 6 4 4 6 8 7 7 8 8 6 8 10 14 16 18 21 23 25 19 19 20 16 11 12 10 14 10 12 17
3 2 3 5 5 7 6 5 6 9 10 7 7 8 12 16 19 22 24 24 22 18 16 13 10 5 5 10 7 13 18 19
4 2 5 8 7 4 3 6 8 10 10 8 7 10 14 17 20 23 22 20 18 13 9 2 3 5 3 5 12 15 18 18
4 7 9 6 3 1 5 9 10 12 8 6 10 12 16 19 19 20 18 18 13 6 1 2 1 1 5 9 12 15 17 20
7 9 6 5 2 5 8 10 11 8 6 9 11 15 18 19 19 18 17 14 10 7 2 2 2 4 7 10 13 16 19 21

GFSFLT1_925_spd_039.txt.gz
Wind_Speed
5 6 6 12 17 21 24 20 13 6 10 4 9 11 13 12 11 10 8 7 6 8 10 12 14 15 14 14 11 10 8 8
7 11 14 19 20 21 21 17 11 9 16 22 19 14 12 9 7 5 4 5 7 10 12 13 15 14 14 13 10 10 10 11
11 13 15 16 19 20 18 15 17 19 21 18 12 14 8 7 5 4 4 6 9 12 14 14 13 10 11 11 11 11 10 9
10 12 13 16 18 20 22 22 21 18 14 12 10 8 6 4 3 1 4 7 11 13 13 11 12 13 11 11 9 8 9 8
11 15 15 17 20 20 20 19 18 17 15 7 5 3 3 3 2 2 4 9 11 12 12 11 12 13 10 9 7 7 6 9
10 12 13 12 18 19 17 15 13 10 7 3 2 1 1 2 2 2 5 10 11 12 12 13 13 13 11 8 6 5 5 7
9 7 8 6 10 11 11 13 9 6 3 2 1 2 3 2 2 5 6 10 12 13 14 16 15 13 11 9 8 7 7 7
10 12 13 11 9 13 10 9 8 6 4 3 5 5 3 3 6 9 9 11 12 14 16 16 16 15 12 10 8 10 11 10
9 9 9 7 7 6 7 7 6 5 4 6 4 3 4 7 9 11 12 14 15 16 17 19 19 16 13 11 10 12 13 14
10 10 8 6 6 6 7 7 5 5 5 2 1 4 8 12 13 12 13 15 18 21 23 22 20 18 15 12 12 12 12 16
6 7 7 7 7 5 5 5 6 5 3 2 4 7 9 9 9 12 16 17 18 20 22 23 21 17 11 11 13 12 14 13
7 9 8 7 6 5 6 7 6 2 1 4 6 6 8 9 10 12 14 17 18 21 23 21 15 10 11 10 8 10 11 12
10 9 8 7 6 8 9 5 2 2 3 6 6 8 6 7 10 12 15 17 19 21 21 16 11 11 12 13 10 9 11 9
8 9 8 8 9 9 7 4 5 6 4 7 8 5 5 7 10 13 15 18 20 19 15 12 12 14 12 6 8 8 6 6
8 8 7 7 9 8 8 6 4 3 7 9 6 5 6 9 12 15 19 20 18 17 12 10 11 11 6 5 5 4 6 10
8 8 8 8 10 13 9 4 2 6 8 9 7 6 8 11 14 18 19 18 16 16 11 12 10 3 1 3 3 6 10 13
9 9 10 11 11 9 6 1 4 7 9 9 6 7 9 13 17 17 15 14 14 12 9 3 1 2 3 4 7 8 11 13
10 9 12 11 9 6 1 3 7 8 9 5 5 8 12 14 14 14 14 13 10 11 7 4 1 1 4 7 11 9 11 14
8 12 11 9 6 1 3 5 6 6 5 5 7 11 13 11 13 14 12 11 10 8 6 1 1 1 6 10 12 10 12 14

GFSFLT1_925_spd_042.txt.gz
Wind_Speed
5 6 9 13 18 21 22 20 20 16 6 2 8 8 8 10 9 8 7 6 6 5 5 6 8 9 10 10 12 13 14 14
7 8 10 15 17 18 19 19 18 16 9 8 9 10 8 6 5 6 5 5 6 7 7 8 8 8 9 11 13 15 16 15
10 10 11 14 17 18 17 14 11 10 12 11 9 10 6 5 5 4 4 5 5 5 5 6 8 11 12 12 13 15 16 14
11 12 13 15 17 18 17 15 17 15 14 10 8 7 7 6 4 3 3 3 2 5 8 9 10 11 12 13 13 14 16 17
13 16 17 18 18 19 20 19 17 14 13 10 9 4 3 1 2 3 2 2 5 6 7 8 9 12 13 14 15 14 15 18
15 18 19 18 16 16 16 15 12 11 9 5 4 3 3 3 3 3 2 4 5 7 8 9 12 15 16 16 16 16 16 15
17 18 17 16 13 12 12 12 12 8 6 6 5 5 4 3 3 5 6 8 9 10 12 13 15 17 18 18 17 16 16 16
15 17 16 15 13 11 10 10 10 9 8 7 7 6 3 2 5 7 9 12 13 15 14 15 17 19 19 18 18 18 17 15
15 16 15 13 12 11 9 9 9 8 7 8 6 2 1 4 5 8 10 12 12 12 14 17 19 19 19 19 18 17 16 18
15 15 13 13 12 9 10 9 9 8 8 5 4 1 3 6 7 7 8 9 11 12 16 19 20 20 19 19 19 17 18 15
13 15 13 11 11 10 10 8 9 8 6 4 1 3 4 3 3 4 6 10 14 17 18 20 20 19 18 18 16 18 16 14
12 12 12 12 11 11 11 11 10 7 4 2 3 3 1 2 3 6 9 13 16 17 19 21 19 17 15 14 16 16 14 14
12 14 15 15 13 13 13 12 9 6 5 6 4 2 3 4 5 8 11 14 16 18 19 18 16 14 14 13 14 12 11 12
12 15 15 15 14 14 13 10 9 8 8 4 3 4 4 5 7 10 13 16 18 18 17 17 15 13 14 12 10 10 9 10
14 14 15 15 15 15 13 9 10 7 3 4 5 5 5 6 8 12 15 16 17 16 17 16 11 12 11 9 7 8 9 11
14 13 14 14 14 14 9 10 6 3 4 6 7 6 6 7 11 14 16 16 15 15 14 11 10 8 4 5 7 8 11 14
14 13 13 13 14 12 10 7 3 3 6 8 7 7 7 10 13 15 15 15 14 14 12 9 5 4 6 5 6 10 13 14
14 13 14 13 13 10 7 4 3 4 7 6 5 7 9 12 14 14 14 14 13 12 10 7 5 3 5 6 10 11 12 12
12 14 14 15 12 8 4 4 3 4 6 6 7 9 12 13 13 14 13 13 11 11 9 8 6 5 6 8 11 9 11 12

GFSFLT1_925_spd_045.txt.gz
Wind_Speed
11 11 12 15 18 18 18 18 18 16 14 9 8 13 12 9 6 5 6 6 6 4 3 5 6 7 9 11 13 15 17 19
10 11 11 12 16 20 18 20 17 15 7 6 11 12 12 9 6 6 5 4 4 3 3 5 6 10 11 12 14 17 19 20
12 12 12 13 16 18 19 16 15 11 9 11 13 13 11 9 7 6 5 4 2 1 4 6 8 11 12 14 16 18 20 20
12 14 13 14 17 20 17 17 16 15 15 13 11 9 9 9 7 5 4 2 1 3 5 7 9 12 14 16 17 19 21 23
12 16 19 20 20 20 19 18 19 17 15 13 13 11 8 3 2 4 5 2 3 5 8 10 11 13 16 17 19 20 22 23
14 17 20 21 20 20 19 19 17 15 12 11 11 6 2 2 2 3 5 7 6 8 10 10 13 16 18 19 21 20 19 19
17 20 21 21 18 17 16 16 14 14 11 8 7 5 3 4 4 6 9 8 11 10 11 13 16 18 19 21 22 22 19 21
16 17 21 21 19 16 15 14 13 12 10 9 7 6 4 3 5 8 9 11 12 13 13 17 18 20 21 22 22 21 21 21
17 19 19 20 18 16 15 15 13 11 11 9 7 6 4 4 5 8 10 12 12 14 15 16 19 20 21 22 22 21 19 17
17 20 18 18 17 17 14 15 14 13 11 10 8 5 3 6 6 7 9 9 11 13 15 18 19 20 21 21 23 20 18 18
17 18 18 17 17 15 14 15 15 13 12 9 7 4 5 7 6 7 7 9 11 14 16 17 19 20 20 20 21 18 18 17
15 17 18 15 14 14 15 15 14 13 9 8 6 6 6 7 7 7 8 10 13 14 16 18 20 20 20 16 18 21 18 18
15 17 15 16 16 17 16 15 15 10 8 5 8 7 7 8 8 8 8 12 14 16 18 19 19 20 17 12 16 19 18 12
14 14 15 17 18 17 16 15 12 9 5 8 9 7 8 8 8 8 11 13 15 17 17 18 19 18 14 14 13 14 11 11
13 13 17 18 17 16 16 12 10 9 8 8 7 8 8 8 8 10 12 14 16 17 16 16 17 15 15 13 11 9 9 10
15 15 15 17 16 17 14 11 11 8 9 7 7 7 8 9 9 11 13 15 15 16 16 14 15 12 7 3 8 8 10 13
15 15 16 17 18 16 14 12 9 7 6 6 8 8 9 9 11 13 15 15 15 16 15 14 12 10 7 9 5 9 14 15
14 13 15 15 15 16 14 10 7 5 6 8 8 8 9 11 13 14 15 15 16 14 13 12 11 7 8 7 7 10 13 12
12 13 13 14 15 15 10 8 6 6 7 8 8 9 11 12 14 15 15 16 14 14 14 12 10 9 10 9 9 11 11 11

GFSFLT1_925_spd_048.txt.gz
Wind_Speed
19 15 19 26 27 28 22 24 23 19 16 8 5 6 4 5 9 8 9 7 6 4 3 2 4 6 7 10 9 12 15 18
14 13 13 22 27 28 28 22 19 16 11 10 9 10 10 10 8 7 7 7 4 4 3 4 4 7 8 9 10 13 14 18
13 12 11 13 25 26 27 22 17 18 13 11 13 13 12 12 12 10 8 7 5 2 3 3 6 8 10 10 13 15 16 14
12 15 14 13 19 21 20 19 19 19 17 16 18 16 16 15 13 13 11 7 3 1 1 4 5 7 10 14 14 14 18 20
14 14 14 14 15 17 21 23 22 18 19 19 19 16 15 15 16 16 11 9 5 2 3 5 6 8 11 13 16 19 18 18
14 18 20 17 20 25 26 24 20 20 16 16 16 9 12 10 6 9 7 7 9 8 8 9 7 8 12 15 15 18 19 19
10 24 25 26 27 23 23 22 20 19 13 13 16 10 10 10 8 7 5 9 4 4 2 5 9 14 13 16 18 20 21 20
11 13 17 21 19 19 20 20 19 17 14 11 8 7 6 5 3 3 1 5 7 7 9 9 11 15 18 18 20 21 22 20
13 15 19 20 18 18 18 18 18 18 14 12 10 9 8 6 4 3 4 6 7 8 9 10 12 15 17 18 20 22 23 20
14 18 21 22 20 19 17 18 18 19 15 14 12 9 4 4 3 3 4 4 4 6 10 12 15 16 18 19 20 20 17 14
13 17 18 23 23 20 20 15 21 19 16 13 11 9 5 5 4 4 4 4 5 8 10 12 15 17 18 19 22 12 16 18
13 15 22 19 22 21 19 15 21 19 17 14 12 7 4 3 8 4 2 4 6 9 11 14 17 18 18 21 12 14 19 22
13 16 19 19 18 19 14 14 17 16 15 13 11 7 11 9 6 6 4 5 8 10 12 15 16 17 18 14 14 13 15 15
13 13 13 16 15 14 16 14 13 15 13 8 10 12 7 5 6 4 5 7 9 11 14 14 15 14 17 20 18 14 12 8
13 11 12 15 15 14 16 16 14 12 8 12 8 8 4 1 3 4 6 8 11 13 14 15 16 11 13 15 10 6 7 9
9 8 6 12 13 14 15 16 11 7 9 8 3 3 3 5 6 6 7 10 12 13 15 14 11 11 9 5 7 8 9 12
5 5 8 12 14 15 16 11 10 10 7 2 7 8 6 3 4 8 11 10 11 14 16 11 12 12 12 12 11 8 9 13
5 6 9 12 15 17 15 12 9 6 3 6 8 4 4 6 8 12 13 12 13 14 9 13 15 17 15 12 10 8 12 12
1 4 7 13 16 14 12 11 10 4 2 6 4 4 5 9 11 13 14 13 12 11 11 14 13 13 15 15 11 9 9 14

GFSFLT1_925_spd_051.txt.gz
Wind_Speed
27 33 33 38 36 36 33 30 28 26 26 20 13 12 12 12 15 16 15 14 11 6 7 7 6 7 7 7 6 9 12 14
27 33 35 34 39 37 38 37 32 27 22 14 12 13 14 15 15 14 13 11 10 12 10 8 6 5 7 7 11 13 12 13
14 23 32 34 40 39 38 35 29 23 18 15 13 17 18 17 15 13 13 11 8 7 5 3 2 3 4 9 11 11 11 18
8 16 28 29 29 37 35 31 26 21 21 18 16 18 20 18 14 15 14 10 8 4 5 3 0 3 6 9 10 13 13 15
10 14 22 27 29 29 28 25 22 24 23 24 26 23 24 23 18 17 14 12 11 9 6 5 5 3 4 7 9 11 14 16
16 16 28 32 29 28 25 23 22 25 22 28 26 25 23 19 19 18 16 13 10 8 8 6 4 2 3 6 10 14 15 17
13 22 24 27 30 26 24 25 25 22 27 26 25 18 20 23 24 22 16 13 10 9 9 6 1 3 7 11 15 16 16 19
14 14 18 21 23 22 25 25 26 28 19 19 16 18 18 17 17 15 11 9 9 5 1 2 4 7 11 14 14 16 18 21
13 13 19 22 24 23 24 29 29 25 19 15 14 14 14 14 12 10 7 4 5 3 3 6 10 13 13 13 15 17 20 14
10 15 24 27 27 24 21 23 26 24 20 18 16 15 14 13 9 7 7 3 2 3 6 9 10 12 13 16 17 18 12 8
8 13 23 28 27 22 18 14 25 25 24 23 19 16 12 5 7 4 5 6 3 6 8 8 10 12 14 15 16 8 10 14
9 12 24 30 31 27 26 19 25 24 24 21 20 15 9 8 3 2 6 4 5 4 7 9 11 12 11 12 9 12 15 16
10 15 24 27 30 31 32 23 27 25 24 21 17 10 5 2 4 5 8 6 2 3 6 10 12 12 14 13 16 16 12 10
10 10 17 22 25 25 26 25 25 23 19 14 5 6 6 5 11 9 7 3 3 6 10 12 12 14 11 12 11 10 8 7
12 11 16 20 21 23 25 27 28 25 17 12 9 6 6 9 7 3 4 5 7 12 11 12 14 6 9 12 9 4 5 7
9 8 9 22 25 24 27 30 26 20 17 13 10 11 7 7 4 4 5 9 12 9 10 12 9 8 9 11 9 12 11 10
8 11 15 19 23 27 27 26 22 18 21 17 12 8 6 3 2 6 9 11 9 12 12 11 8 12 15 14 16 11 9 9
7 8 14 20 26 31 28 26 25 24 20 14 9 7 3 3 8 14 14 13 14 13 12 11 12 14 15 15 14 11 10 10
8 13 21 23 26 28 29 28 24 19 16 15 12 9 7 9 13 13 14 15 14 13 14 14 15 14 15 15 16 14 12 11

GFSFLT1_925_spd_054.txt.gz
Wind_Speed
29 32 34 37 36 37 31 32 32 29 25 21 19 16 13 14 16 17 16 15 14 12 12 10 8 5 4 4 4 6 4 8
27 31 34 35 34 39 37 35 31 28 26 23 18 16 16 15 15 17 17 14 12 12 12 12 8 4 3 3 4 5 7 13
22 29 30 32 37 39 38 36 32 30 30 25 15 14 15 16 18 18 17 15 15 13 11 10 8 5 3 2 5 5 7 9
16 24 28 27 30 37 40 40 36 30 26 18 11 16 17 20 21 20 20 16 13 11 10 9 5 1 1 2 3 4 4 8
17 25 25 32 37 38 38 37 32 28 25 22 21 27 23 25 26 24 21 14 12 10 9 8 5 4 3 1 3 6 9 10
18 25 34 33 36 40 38 34 32 29 28 24 25 26 28 26 26 24 20 17 14 13 11 8 8 6 2 1 6 9 9 10
11 22 27 30 36 38 34 35 34 30 29 25 30 29 29 24 26 26 22 20 17 12 9 10 5 1 3 7 10 12 13 15
11 14 21 23 27 29 36 35 29 26 30 27 31 30 29 27 29 27 22 17 16 15 10 4 2 4 6 6 8 12 13 15
13 16 21 23 28 32 31 30 26 22 25 30 30 23 23 21 21 20 15 15 12 8 6 2 3 3 7 9 11 11 14 14
12 14 20 24 28 31 33 29 25 24 26 26 22 21 22 20 16 16 21 12 11 4 4 7 6 7 11 12 13 14 12 8
8 13 20 26 30 29 27 27 29 30 26 25 24 24 22 20 19 15 6 8 1 9 7 4 9 14 14 15 14 11 11 14
11 13 23 31 31 31 29 30 33 30 28 27 26 24 26 19 11 3 6 2 6 4 8 8 10 11 15 15 14 13 14 16
14 19 25 27 33 35 33 36 38 37 33 31 27 21 11 9 10 8 3 5 6 5 5 7 11 14 13 13 14 13 14 13
10 12 20 27 29 28 18 21 21 28 34 28 24 20 14 8 9 7 5 10 3 5 8 11 12 11 13 12 12 14 9 8
11 10 15 21 19 22 26 26 31 31 26 21 18 16 10 11 10 12 8 5 5 8 12 11 12 12 10 11 12 12 9 8
6 6 7 18 19 22 26 30 33 30 27 25 21 18 20 19 12 3 7 7 7 17 14 11 12 12 12 12 13 13 14 14
7 8 13 18 22 23 25 28 28 28 28 26 25 21 18 9 2 2 3 7 19 13 10 14 15 12 12 14 13 15 14 13
7 8 12 17 19 24 24 26 26 27 26 23 18 14 13 10 6 4 13 18 10 12 16 15 14 14 15 14 15 16 15 14
8 12 20 22 25 27 30 30 29 24 23 22 20 16 11 1 13 13 10 10 16 17 15 15 16 17 14 14 16 16 16 17

GFSFLT1_925_spd_057.txt.gz
Wind_Speed
22 21 22 23 24 28 29 31 29 27 26 25 23 20 17 15 14 15 18 19 17 16 14 13 9 6 5 5 6 6 5 5
21 23 22 23 26 30 30 32 31 31 29 26 22 20 17 17 18 21 19 19 17 14 13 11 8 4 4 3 2 4 3 7
18 23 26 29 33 34 31 33 35 33 31 28 24 22 19 20 22 20 18 17 16 13 10 9 8 5 5 5 4 2 3 7
16 22 29 33 37 39 38 38 38 36 32 27 19 21 16 19 21 20 19 16 15 13 10 9 9 7 8 5 3 3 3 3
16 22 27 36 43 41 41 40 40 38 33 29 25 24 18 21 24 23 21 18 15 13 11 10 9 9 8 6 4 3 4 3
20 25 34 30 29 35 36 36 37 37 32 29 24 19 19 19 24 23 21 18 16 15 13 13 10 8 6 3 2 3 3 3
16 23 22 24 28 30 35 40 41 36 33 28 24 21 22 21 23 22 21 18 14 13 12 11 7 4 2 3 4 6 6 8
12 13 21 23 28 34 31 33 32 36 33 29 26 24 24 26 25 26 26 20 15 15 16 9 2 2 6 13 8 8 9 10
13 16 22 23 27 29 28 30 32 36 30 27 29 26 28 27 24 26 25 20 21 16 6 4 3 12 17 8 7 9 11 10
15 17 22 22 24 29 31 32 32 30 31 30 32 27 29 26 21 21 21 24 18 8 3 5 13 8 8 7 9 8 5 5
9 13 19 23 29 32 32 33 32 30 28 29 29 30 27 24 26 32 28 16 7 6 1 8 11 10 8 10 8 5 6 9
10 12 20 26 27 31 30 30 30 31 28 30 30 30 31 31 27 23 17 13 13 10 7 12 17 9 8 8 8 9 10 12
11 15 19 24 29 31 33 33 32 30 31 31 29 29 29 27 22 18 20 18 15 11 12 15 10 10 8 9 12 11 11 14
5 6 14 21 25 23 26 27 29 33 32 31 34 31 24 19 20 20 16 10 11 12 13 10 11 9 7 12 12 11 13 15
7 5 6 12 16 19 20 23 29 32 34 35 32 28 22 21 18 13 11 9 10 12 8 12 10 8 11 10 10 11 14 12
8 7 6 11 18 20 21 23 26 29 27 28 25 21 17 17 14 13 5 7 9 7 13 10 9 12 12 10 11 12 13 14
7 7 8 13 17 20 21 23 23 25 22 21 19 17 20 20 9 4 6 3 13 15 11 11 14 14 13 12 14 13 13 16
6 6 8 14 19 24 24 25 25 24 25 25 25 20 13 12 9 4 7 10 14 12 14 15 16 15 14 15 15 14 16 17
8 10 16 19 22 23 26 27 27 27 25 23 21 16 11 2 7 10 10 13 13 15 17 16 16 17 17 17 16 17 20 20

GFSFLT1_925_spd_060.txt.gz
Wind_Speed
16 20 19 24 26 21 22 22 24 24 23 22 20 21 20 15 15 15 16 18 19 18 17 16 14 12 9 7 7 7 6 4
16 19 20 21 26 23 24 28 26 26 25 23 22 22 19 17 16 16 19 19 19 18 18 16 13 9 6 5 7 7 4 4
13 19 24 26 30 28 28 31 32 31 30 29 25 24 19 18 18 18 19 19 18 18 16 14 12 8 7 7 6 6 4 5
10 17 27 31 33 34 34 33 33 33 33 29 22 22 18 19 20 20 20 19 18 16 15 13 12 9 9 8 5 3 4 3
11 17 21 29 30 31 33 33 33 35 33 32 31 32 22 22 23 23 21 21 19 18 16 14 13 10 8 7 6 2 3 1
16 19 25 26 31 33 32 33 34 37 37 36 33 28 24 20 24 25 23 20 19 17 16 15 12 9 6 3 1 2 4 3
12 18 21 22 26 30 32 35 37 36 36 36 33 25 24 20 24 27 24 20 18 16 14 12 12 10 3 2 5 4 4 4
11 11 18 23 29 33 34 34 31 36 37 37 33 28 26 25 26 30 27 25 21 19 18 20 16 7 5 7 5 8 7 7
14 15 21 25 31 32 30 30 31 34 34 36 34 31 29 24 23 28 29 26 23 22 22 16 3 4 2 4 9 11 9 8
15 14 22 24 27 32 33 30 31 29 36 35 34 31 28 24 25 25 27 29 31 28 21 14 8 6 7 7 10 10 9 7
7 8 18 22 26 29 30 31 33 33 33 35 32 29 27 26 26 26 31 31 29 22 15 9 10 9 7 11 9 9 9 9
7 7 15 19 21 25 28 30 30 31 30 30 30 28 28 25 25 26 31 29 24 17 13 10 7 7 10 12 9 10 13 11
7 8 15 20 25 27 31 29 29 29 29 29 29 29 28 27 28 31 28 23 16 14 12 9 6 13 13 12 9 13 13 12
7 6 11 17 18 19 22 26 27 25 25 26 25 25 28 29 30 25 22 15 13 10 7 10 12 14 14 12 12 13 13 12
6 5 5 8 10 14 17 18 19 21 21 20 21 22 26 22 18 17 13 10 7 6 9 16 14 13 12 13 14 14 13 14
7 4 6 9 14 14 14 16 18 20 23 24 23 23 18 19 15 12 12 7 9 11 11 14 13 13 13 15 15 15 16 16
3 2 6 8 11 14 18 19 20 22 23 23 22 16 15 15 14 15 11 9 5 9 11 15 19 15 17 16 17 18 18 18
7 6 7 12 13 16 19 22 23 23 21 19 18 19 21 14 12 9 2 10 16 13 17 16 17 20 18 19 20 22 22 20
7 8 14 16 18 20 22 23 24 25 25 25 22 21 16 8 5 9 13 10 13 14 17 17 19 20 20 21 22 24 24 23

GFSFLT1_925_spd_063.txt.gz
Wind_Speed
19 20 21 21 22 20 20 19 18 19 18 20 21 21 20 19 19 18 16 17 21 21 21 19 17 14 12 9 8 8 5 3
17 19 20 22 23 23 24 22 22 25 24 22 20 21 21 21 18 16 17 20 22 21 22 19 16 14 11 9 9 6 3 0
19 20 20 22 24 28 25 25 25 26 25 25 21 21 21 20 19 19 21 21 21 23 20 19 17 14 12 11 8 6 3 2
16 21 24 23 25 30 30 26 28 27 24 23 20 21 18 19 20 21 22 22 22 21 20 18 17 14 12 10 9 7 5 4
15 22 25 26 26 23 26 25 26 27 28 24 27 21 18 17 22 25 24 22 22 21 20 19 17 15 13 12 10 7 3 3
19 22 25 25 24 27 28 26 26 27 29 28 27 20 19 20 22 24 24 24 22 21 21 20 20 18 17 14 9 4 3 5
19 21 21 22 23 23 27 24 24 25 28 28 28 25 23 19 18 23 23 24 24 23 24 23 22 21 19 14 8 7 5 6
17 17 21 22 24 27 25 24 24 28 30 29 31 30 28 25 22 27 26 24 27 29 29 27 26 24 18 10 8 8 8 8
17 19 24 25 27 25 27 26 26 27 33 33 35 35 31 27 29 28 29 32 32 30 28 27 25 19 10 8 8 9 7 8
16 15 21 24 25 28 36 26 26 24 29 32 30 32 32 33 31 25 27 31 30 28 27 26 19 14 9 8 9 8 9 9
9 12 18 21 22 23 23 25 27 25 24 25 29 29 33 35 31 29 29 31 29 29 29 24 20 14 9 8 10 10 10 10
8 10 15 17 17 20 21 23 23 23 23 24 27 25 30 30 29 27 27 29 33 34 29 22 14 10 8 8 11 11 11 12
5 8 12 14 17 18 21 19 20 20 19 20 22 22 22 22 21 22 25 27 31 26 19 13 9 8 8 13 14 14 13 12
4 5 9 11 13 14 13 13 14 15 17 16 15 14 14 15 16 18 19 21 17 14 10 4 3 9 11 13 16 16 15 15
5 4 3 4 6 9 11 10 11 10 10 11 12 13 15 16 19 23 19 19 12 10 9 9 10 11 15 15 17 19 18 17
2 4 5 8 8 7 7 8 8 11 15 15 15 16 20 26 21 20 15 15 11 6 8 12 12 14 15 18 19 19 18 17
7 6 7 8 8 10 13 13 13 13 15 16 20 24 20 17 18 17 13 7 4 7 11 14 16 18 22 20 20 18 19 18
9 9 10 10 11 12 14 16 17 17 18 19 20 20 21 21 15 13 11 5 8 14 13 13 17 18 18 20 21 23 20 21
9 11 15 15 16 18 20 19 20 22 23 25 25 26 24 17 10 5 4 12 12 10 12 13 15 17 17 19 20 22 21 23

GFSFLT1_925_spd_066.txt.gz
Wind_Speed
17 21 24 26 25 22 19 17 14 14 12 11 12 14 15 14 13 13 14 14 16 17 16 17 16 13 11 9 8 7 5 2
21 22 24 27 25 23 22 20 17 15 15 15 16 17 18 15 12 12 13 14 17 18 17 18 16 14 12 12 10 8 4 1
19 23 24 25 26 26 24 22 19 19 18 18 16 17 17 16 13 13 15 15 17 18 18 18 17 15 15 14 12 8 4 1
19 24 25 25 26 27 25 23 21 20 18 17 14 14 12 14 13 14 16 17 19 19 19 18 18 16 16 14 12 10 8 6
18 23 27 27 26 26 27 23 22 20 20 19 19 19 18 18 16 15 15 18 20 21 20 19 19 17 16 14 13 11 7 7
20 24 29 28 25 25 25 25 23 22 23 23 21 21 18 15 15 16 17 17 20 21 21 20 20 17 16 15 13 11 8 7
20 25 24 27 27 26 25 26 26 25 25 25 24 22 20 16 18 18 20 18 20 21 21 21 20 18 18 18 16 14 12 10
19 19 23 26 28 28 27 27 28 26 25 24 24 22 22 21 21 22 20 21 22 21 22 22 20 19 19 17 15 15 13 13
19 19 24 26 28 28 28 29 30 27 26 25 25 26 25 25 23 21 24 26 24 21 24 21 20 20 18 20 15 10 14 12
16 19 23 25 26 30 32 30 27 27 26 24 26 23 21 20 20 21 27 24 19 20 22 21 19 19 22 18 13 13 12 9
8 11 18 21 22 24 24 24 24 24 23 22 21 20 19 18 18 20 25 19 18 19 21 22 24 20 17 13 12 11 11 11
5 7 11 15 16 18 20 20 21 20 20 19 19 18 16 17 18 18 22 18 16 16 16 20 22 17 11 8 9 9 12 12
2 4 8 10 13 14 15 15 17 17 16 15 16 15 16 20 19 18 19 18 21 24 24 20 10 7 7 9 12 12 14 14
5 6 6 8 9 10 11 11 11 11 10 12 13 13 13 12 11 13 17 15 15 18 18 15 12 8 13 13 14 14 16 15
6 7 7 9 9 10 10 10 10 11 11 11 11 11 11 11 11 13 16 17 19 20 14 12 8 9 11 13 14 15 17 18
6 7 6 9 11 10 11 12 13 15 16 15 15 15 15 17 20 19 18 18 17 13 8 7 8 10 11 12 15 16 18 20
4 6 8 10 11 13 14 15 15 15 17 18 18 19 19 19 23 22 19 14 13 9 5 8 12 15 14 15 18 19 21 22
7 9 10 12 13 15 17 17 17 18 20 20 20 20 20 19 21 19 15 11 6 3 9 10 10 11 14 16 17 18 22 25
9 10 13 15 16 18 20 19 20 20 21 20 20 21 21 18 16 12 9 6 6 5 5 7 9 11 14 14 16 18 21 25

GFSFLT1_925_spd_069.txt.gz
Wind_Speed
18 22 26 31 33 31 26 22 20 20 18 15 15 15 17 17 16 15 15 14 14 13 14 14 15 14 13 12 11 8 8 6
23 24 24 27 27 26 24 22 19 17 16 17 17 18 19 19 16 15 16 15 15 16 15 15 16 15 14 13 11 10 8 6
20 22 29 30 30 26 23 21 20 19 18 17 17 18 19 19 15 14 15 15 15 17 17 17 17 15 15 15 14 12 9 7
20 25 28 31 29 27 24 21 20 19 18 17 16 16 16 18 17 15 16 17 18 20 19 18 18 17 17 17 15 14 11 8
18 22 27 29 28 26 26 24 23 21 19 18 20 19 20 19 17 15 16 18 19 20 19 19 20 19 18 18 17 15 13 12
21 23 29 30 29 28 27 27 24 23 23 22 21 20 19 17 18 17 21 16 18 19 18 19 21 22 21 19 17 15 12 9
20 27 30 30 27 27 28 28 28 25 24 25 24 22 22 21 16 17 17 17 18 25 22 23 21 22 19 18 16 14 11 6
20 20 23 28 31 30 29 28 29 29 27 27 27 26 23 21 18 20 19 20 22 25 26 24 23 22 19 17 16 15 13 6
21 21 25 28 30 31 30 29 30 30 29 29 27 26 24 21 22 21 22 22 22 20 28 26 22 20 18 16 15 12 7 8
19 21 26 28 29 30 31 31 29 29 29 26 25 24 24 20 20 18 18 19 21 24 26 27 23 20 19 20 20 15 13 10
10 14 22 24 26 27 27 28 28 27 26 24 24 23 21 19 16 18 17 17 18 21 22 21 19 22 20 20 16 12 8 9
5 8 14 21 21 23 25 26 26 25 25 24 21 20 19 17 17 16 16 17 19 16 14 17 23 22 20 13 9 8 8 12
6 6 8 11 16 18 19 20 22 22 21 20 20 17 15 16 15 16 15 18 18 21 19 14 12 16 15 13 9 10 14 14
6 7 9 11 13 15 17 16 17 17 17 13 16 15 16 14 14 13 13 17 18 18 19 22 20 16 13 9 10 12 13 18
8 8 8 11 12 13 13 10 11 13 15 15 15 13 13 13 12 13 17 18 18 18 18 19 17 11 8 8 10 15 17 15
8 7 9 10 12 13 15 13 12 13 15 15 16 16 15 17 17 20 19 18 17 19 19 13 9 8 8 8 10 12 14 17
4 6 8 10 10 16 16 14 14 15 20 19 19 19 18 20 20 19 22 22 19 16 11 5 5 7 9 11 9 12 15 18
4 7 9 10 12 16 18 18 18 17 18 18 18 19 19 20 20 22 20 19 15 10 5 5 6 8 7 7 11 12 16 20
7 8 12 13 15 17 19 20 20 20 20 21 19 20 20 18 17 18 15 10 8 5 6 5 3 5 7 9 12 13 17 20

GFSFLT1_925_spd_072.txt.gz
Wind_Speed
26 27 26 33 35 29 32 34 33 33 33 29 26 25 25 24 25 25 25 22 20 20 16 17 19 15 16 17 14 14 12 11
26 28 34 31 31 32 34 29 34 31 28 26 23 22 24 21 20 19 22 22 22 22 17 18 21 18 18 17 14 13 11 8
18 28 31 31 33 33 34 33 28 27 26 25 25 25 27 26 26 25 22 22 20 20 19 21 20 19 19 20 17 14 13 12
18 24 32 36 35 34 32 35 33 31 30 28 24 24 23 25 24 24 23 21 21 21 21 19 20 22 23 20 21 18 18 13
17 23 27 33 37 35 35 31 33 32 30 26 27 21 19 21 23 23 22 23 22 21 22 23 22 24 19 26 24 23 19 16
23 22 31 35 34 35 30 26 26 28 29 22 27 22 23 23 24 25 23 22 23 22 23 24 24 24 24 24 24 24 19 12
18 29 33 33 36 33 33 31 27 27 33 30 22 27 23 22 23 22 24 26 27 23 21 27 28 24 24 21 22 22 19 15
21 22 23 30 33 34 31 32 31 30 32 32 33 25 30 22 22 28 26 26 28 28 31 32 29 28 26 21 22 18 20 18
18 18 28 32 34 35 33 32 32 31 31 31 32 34 25 29 26 25 26 25 26 26 25 29 25 25 23 23 19 24 20 18
13 18 24 31 34 36 36 34 33 32 33 32 30 30 30 27 26 23 21 22 22 22 21 24 23 20 17 17 23 21 17 15
7 11 21 28 32 37 38 37 31 31 29 32 31 30 28 27 23 26 22 19 16 21 23 22 23 21 20 21 19 17 14 11
3 3 6 25 28 29 37 35 31 26 30 31 30 26 24 22 21 15 16 17 18 18 19 22 22 22 21 20 13 14 13 11
6 3 2 5 12 18 26 27 24 24 25 30 30 27 22 21 19 19 21 20 21 20 21 22 22 20 21 21 18 14 14 16
7 6 5 5 3 3 11 21 21 21 20 18 23 22 27 24 19 20 18 21 19 21 20 21 24 23 17 13 12 13 15 16
6 10 9 9 9 8 7 12 12 15 18 22 24 20 20 18 17 17 18 20 24 22 20 18 16 14 14 14 13 13 13 14
5 4 10 12 15 21 19 18 17 17 19 20 19 19 19 18 16 18 19 19 19 17 17 15 17 16 13 10 8 11 11 13
6 2 12 12 22 19 15 15 13 14 21 22 20 20 19 19 20 20 21 19 17 17 19 18 13 10 8 9 10 7 9 12
2 2 11 18 21 21 18 20 18 20 22 22 22 22 23 22 23 22 21 22 21 18 13 9 7 7 9 10 10 8 10 12
5 6 12 22 24 22 23 21 19 20 20 21 21 22 22 22 23 23 23 21 16 9 9 8 7 11 9 7 4 5 7 10

GFSFLT1_925_spd_075.txt.gz
Wind_Speed
20 19 20 23 23 23 27 31 33 32 32 33 34 29 22 27 28 21 24 26 21 22 22 24 21 21 20 20 18 16 16 13
25 24 22 25 30 25 27 29 35 33 34 33 31 26 30 34 33 32 29 26 28 26 25 24 24 26 23 22 20 19 13 17
23 25 27 25 25 28 30 31 35 34 33 32 25 31 32 33 28 30 32 31 28 26 27 25 25 28 25 25 24 20 20 16
19 25 30 28 27 30 31 34 36 37 35 30 26 24 27 30 27 28 31 30 30 30 27 26 27 31 28 28 29 27 23 19
21 23 28 31 33 35 37 35 35 38 37 32 29 25 24 28 36 34 33 33 31 29 26 27 27 32 31 29 31 30 24 22
23 24 33 37 37 37 37 38 37 35 37 35 33 31 33 31 34 36 39 36 32 31 28 25 29 31 30 26 30 28 28 22
22 32 34 38 38 37 35 36 36 39 41 42 37 37 36 33 31 37 39 36 36 34 30 29 30 29 30 30 31 34 30 27
21 23 28 35 39 38 36 37 36 43 43 39 40 45 39 39 37 35 35 36 38 37 34 32 31 31 28 26 27 26 27 19
22 25 33 37 41 41 39 38 35 36 38 43 42 43 46 39 39 37 40 40 39 37 36 32 29 27 28 23 23 21 19 19
21 21 34 38 39 44 44 39 39 36 35 39 47 44 41 43 40 31 36 36 32 32 33 26 24 25 24 24 22 15 20 20
16 17 29 36 41 43 43 43 41 44 41 35 41 45 44 37 37 37 32 35 32 27 27 23 21 22 21 21 19 22 22 21
4 8 27 38 39 39 39 38 36 32 36 38 36 40 43 42 35 29 24 27 28 26 24 22 23 23 24 24 22 21 21 18
7 2 8 24 27 29 33 32 34 35 32 34 39 40 37 30 18 22 23 26 22 18 17 21 22 23 23 22 22 21 18 16
7 7 3 13 19 25 27 32 37 33 26 35 32 31 26 28 30 26 26 22 19 17 17 19 21 22 22 21 19 15 13 12
8 7 7 9 22 22 21 20 25 25 24 25 23 22 25 23 23 23 20 19 19 21 21 22 22 20 19 16 14 12 10 8
4 8 7 11 18 25 23 21 20 19 20 21 21 23 24 23 20 19 18 19 20 21 21 19 19 19 18 17 11 7 4 6
2 5 13 10 17 20 25 23 19 20 22 22 22 22 21 20 18 18 19 20 19 19 20 20 20 18 14 10 8 7 6 5
8 13 9 12 16 21 20 23 21 21 23 22 21 21 21 21 21 22 22 22 22 21 20 18 14 11 9 9 9 7 5 4
10 10 13 17 21 23 24 23 23 24 23 23 23 24 25 25 25 26 25 25 24 22 17 13 11 10 10 14 10 7 4 3

GFSFLT1_925_spd_081.txt.gz
Wind_Speed
8 11 10 14 15 19 19 21 26 25 28 24 26 32 32 31 29 30 30 27 27 23 20 23 23 20 20 20 17 17 16 15
9 11 12 14 16 19 22 23 26 25 29 24 27 33 30 28 28 27 26 25 21 18 22 23 22 20 22 21 20 20 18 17
8 11 15 15 16 20 21 24 29 34 35 24 21 26 32 28 25 23 20 17 15 23 23 24 21 21 23 24 25 24 20 19
14 16 17 18 18 22 22 23 29 30 30 23 25 24 26 26 24 24 20 20 25 23 22 22 22 22 26 27 29 28 24 23
11 18 20 22 22 23 27 27 29 28 32 30 32 29 26 27 30 30 25 23 24 21 23 25 26 28 27 30 31 32 28 25
14 14 20 21 21 22 29 30 31 32 35 35 34 29 28 26 29 32 35 32 30 27 28 29 31 30 31 33 34 34 31 28
12 15 16 19 23 24 26 29 32 35 37 37 37 34 31 30 31 34 37 35 35 35 34 35 37 35 37 37 36 34 35 33
13 13 15 20 25 28 30 32 32 36 39 38 38 38 36 33 34 36 36 38 40 40 36 37 38 42 41 39 37 34 33 34
15 16 20 23 26 29 32 32 33 35 38 38 40 36 34 36 33 35 37 35 39 41 42 43 44 44 41 39 36 29 30 34
18 16 23 24 27 33 35 33 34 33 34 35 36 39 36 33 34 34 39 39 39 39 39 40 41 41 39 36 33 30 29 31
13 13 22 27 30 31 33 34 34 33 30 33 34 36 39 39 36 38 41 35 32 31 32 35 36 35 29 28 29 27 27 28
16 15 24 28 26 28 31 34 34 30 31 33 34 37 38 39 39 37 40 37 35 31 31 31 30 26 31 31 33 29 26 26
17 16 22 24 30 29 35 36 36 35 36 46 40 34 34 35 38 41 40 36 31 30 27 24 25 30 32 34 29 26 26 26
12 11 13 21 27 30 34 34 38 40 38 36 33 37 37 41 43 42 39 37 40 36 36 38 32 33 31 32 24 24 26 24
12 11 13 19 26 28 31 34 39 40 38 35 36 39 42 40 42 41 38 37 37 35 36 34 33 34 31 26 24 24 22 19
10 11 11 10 17 25 29 33 33 35 32 33 33 34 35 34 31 32 32 33 32 30 27 28 30 28 25 24 24 22 20 17
13 11 9 8 16 21 23 23 21 23 26 25 25 23 21 19 19 21 23 23 22 23 26 26 23 21 22 22 20 21 20 17
10 14 13 9 12 14 12 13 16 16 18 19 18 17 17 17 17 19 20 19 19 20 20 19 19 18 17 19 19 19 17 17
7 7 7 13 14 13 13 11 11 13 14 14 13 15 17 19 20 20 20 21 21 20 19 18 18 19 19 19 18 17 16 14

GFSFLT1_925_spd_084.txt.gz
Wind_Speed
6 8 10 9 11 14 16 22 28 28 23 24 27 21 25 29 29 29 32 26 29 30 28 27 25 21 19 17 15 15 15 14
8 9 13 13 13 16 18 21 25 31 27 26 28 24 26 33 32 32 31 34 34 31 27 25 23 21 20 19 17 17 16 16
9 11 13 16 15 16 18 23 27 27 28 29 22 26 27 30 30 30 30 31 30 28 26 26 23 21 21 22 21 20 17 18
12 11 13 14 17 17 18 21 28 26 31 25 15 22 25 24 25 30 26 27 27 26 25 23 20 22 24 24 25 25 20 20
8 13 14 13 14 19 19 20 25 29 35 30 23 24 22 22 31 33 28 25 25 24 24 19 17 24 26 26 27 28 27 23
12 12 16 18 20 22 24 22 24 27 35 30 29 22 26 30 29 28 29 26 24 22 19 18 25 27 28 29 29 31 33 30
10 15 16 16 18 20 24 27 28 29 34 35 34 33 29 30 30 30 30 29 29 26 25 29 29 28 30 31 32 35 35 34
14 14 16 17 22 23 24 31 32 34 35 37 38 35 36 35 37 35 33 34 33 35 32 31 31 30 30 34 36 37 36 36
16 17 22 25 27 27 25 29 29 32 35 36 36 37 37 37 34 34 36 39 41 38 35 33 33 33 34 34 35 37 38 36
17 16 23 27 30 33 32 30 31 31 35 35 36 39 38 36 37 37 38 39 36 34 35 35 35 34 35 37 36 36 33 33
12 14 21 25 28 29 34 35 36 35 37 37 37 38 40 39 36 38 40 40 38 37 36 35 34 34 36 33 33 29 25 26
13 14 21 23 23 30 33 36 33 34 35 35 35 37 39 40 40 40 41 42 43 41 39 39 36 36 37 32 30 26 24 31
8 7 13 20 25 28 32 31 34 38 38 39 44 45 41 41 43 46 43 44 41 38 39 39 36 36 38 32 34 28 27 32
6 8 10 16 21 24 28 30 35 35 36 40 38 32 34 39 36 35 38 41 41 40 38 38 35 39 40 29 28 26 26 29
6 6 9 14 20 24 25 29 32 33 35 36 32 34 38 36 37 38 37 37 38 38 36 37 38 37 34 29 28 25 25 25
9 10 10 10 18 22 27 29 30 34 34 33 36 32 30 33 34 34 35 33 31 34 32 35 32 31 30 29 27 26 24 23
11 12 9 10 18 22 20 19 22 27 29 27 25 25 27 27 28 26 25 24 25 28 29 28 26 26 26 24 26 24 21 19
13 14 14 9 12 16 14 13 13 16 21 18 16 20 18 18 14 14 15 19 21 21 20 20 20 19 16 19 19 17 19 19
10 7 6 13 15 15 15 13 13 13 14 14 14 13 13 13 13 14 16 16 16 15 14 14 13 14 15 16 18 20 19 16

GFSFLT1_925_spd_087.txt.gz
Wind_Speed
7 6 7 7 11 16 21 21 23 21 23 19 23 24 26 25 28 27 37 37 35 32 31 30 26 25 23 20 20 18 17 16
9 8 8 8 10 15 20 24 25 25 28 24 25 26 26 27 30 30 30 33 33 31 30 29 26 25 23 21 20 18 17 17
10 11 10 11 13 13 17 23 30 25 23 22 24 21 22 29 35 36 26 23 25 29 27 25 28 25 22 23 23 16 11 19
12 13 14 14 13 16 16 20 27 29 28 25 25 19 18 27 27 30 29 27 26 25 26 29 29 24 26 27 25 22 14 18
13 15 17 16 15 15 16 18 24 29 32 30 33 26 24 26 33 34 31 37 37 34 33 31 28 28 28 28 26 28 22 16
16 16 20 19 18 18 17 18 24 25 31 31 30 24 23 24 31 36 38 35 35 33 32 31 30 31 32 28 27 29 29 21
16 18 19 20 19 19 19 18 21 26 31 25 29 27 23 28 31 34 40 33 29 31 32 32 30 29 28 27 27 28 30 32
16 17 18 22 24 23 21 21 22 23 27 27 29 27 24 22 27 28 26 32 30 31 30 30 29 29 29 27 28 32 34 34
17 19 21 23 25 25 25 27 24 24 26 29 28 31 26 22 25 27 28 28 30 35 33 32 31 30 30 29 32 35 31 33
19 17 23 24 26 27 27 26 27 28 28 28 30 33 29 28 29 28 28 31 31 34 34 32 32 33 32 29 29 30 28 31
15 17 23 25 25 25 26 27 29 31 30 30 30 31 35 33 31 35 36 37 37 34 33 34 32 31 31 27 25 26 29 31
15 15 20 22 22 25 28 29 29 30 31 31 31 32 33 35 36 36 36 35 36 35 34 31 35 36 32 29 37 39 35 36
14 15 19 22 25 27 29 28 30 29 29 29 32 32 33 35 38 37 33 34 34 36 35 35 39 38 40 40 38 33 36 37
11 13 16 21 25 27 30 31 34 31 30 30 30 30 29 32 34 32 30 35 32 31 32 35 41 42 39 38 37 39 38 37
10 12 14 20 24 27 29 30 30 31 31 32 33 34 35 35 32 34 36 31 29 29 30 32 35 36 38 38 39 36 36 31
11 12 14 16 21 24 25 26 28 30 31 32 33 30 27 26 27 29 27 29 30 30 30 33 36 36 38 39 39 35 31 24
10 11 9 13 21 23 24 24 25 26 28 29 26 24 22 24 25 25 27 29 28 30 33 35 34 34 36 37 33 28 23 23
11 11 13 13 19 19 19 19 20 22 21 18 19 23 24 23 22 22 24 25 27 27 26 25 23 23 21 16 19 18 19 19
14 11 6 10 12 15 16 14 15 15 14 15 16 15 14 13 14 15 13 12 9 8 8 7 7 4 9 15 15 16 17 18

GFSFLT1_925_spd_090.txt.gz
Wind_Speed
8 6 6 6 8 11 14 14 16 15 17 28 31 32 31 33 37 35 38 35 34 32 25 27 26 23 14 15 15 13 11 10
9 8 8 8 10 11 13 14 15 21 21 23 25 26 29 28 33 30 35 38 36 29 24 23 21 18 16 13 12 13 9 9
10 10 10 10 10 12 12 14 17 17 22 22 18 26 27 26 27 29 24 32 28 27 22 22 18 20 17 16 14 12 11 14
13 12 13 13 14 13 13 15 17 18 19 26 24 19 22 22 28 27 26 31 24 23 25 23 22 19 18 19 17 16 14 13
14 14 16 17 16 15 16 16 18 19 26 25 27 25 26 25 34 29 29 24 25 23 23 22 22 24 20 21 20 19 16 15
17 15 18 18 18 18 17 17 18 20 23 24 28 21 22 22 26 29 30 29 26 24 20 22 20 20 19 20 19 19 18 18
15 17 17 19 18 19 19 19 19 21 26 25 29 27 20 22 23 30 29 33 32 32 23 19 19 18 21 22 19 18 20 20
17 17 17 20 22 21 20 21 21 21 24 27 29 29 29 24 29 29 27 27 28 31 26 22 20 23 22 19 17 20 22 23
19 19 19 21 23 23 22 23 23 24 25 26 27 27 30 27 30 30 32 32 32 27 28 28 26 24 22 18 19 21 22 22
20 20 23 23 24 25 26 26 25 26 28 28 28 29 29 27 26 29 29 31 31 31 29 27 24 23 22 21 23 25 23 23
17 18 23 26 26 26 26 27 28 27 27 29 29 30 32 28 28 29 29 29 29 29 28 26 26 25 24 26 26 24 21 21
14 16 21 25 25 27 27 27 27 28 28 28 28 30 32 32 31 31 30 29 30 30 30 29 29 30 31 30 29 24 21 23
12 14 18 22 25 26 28 28 28 28 28 28 29 28 28 30 32 30 29 31 30 32 31 31 34 34 33 31 32 32 33 36
12 13 15 18 23 26 28 29 30 28 28 28 28 29 29 29 29 29 30 29 29 29 29 30 30 31 30 30 36 40 41 42
12 13 14 18 23 26 27 28 28 29 29 29 29 30 29 28 28 28 28 28 27 26 26 28 27 27 28 31 30 32 35 33
13 14 14 16 21 24 25 25 27 28 29 29 29 26 25 25 25 24 24 25 26 26 25 26 26 27 27 26 30 34 34 32
8 12 14 16 21 24 24 24 25 26 27 27 24 24 24 24 23 23 23 23 22 22 22 23 23 25 31 31 31 27 26 22
11 11 14 16 22 22 22 22 22 24 23 22 22 21 20 20 20 20 19 18 17 17 16 18 16 16 19 17 14 14 12 11
13 13 10 14 16 19 20 21 22 22 21 20 18 17 16 13 11 11 12 12 10 6 3 2 1 4 3 3 6 8 10 11

GFSFLT1_925_spd_093.txt.gz
Wind_Speed
12 8 7 5 7 8 9 7 6 7 12 18 17 25 22 41 41 41 39 32 29 23 21 21 23 21 20 17 17 14 14 13
12 11 10 9 9 10 11 10 9 15 15 21 21 22 32 35 37 40 38 32 29 23 23 23 22 22 24 19 16 14 10 10
12 14 12 12 12 12 12 12 13 10 12 15 22 29 27 31 33 32 30 30 30 28 27 23 20 21 19 18 17 14 10 14
15 14 16 15 15 16 13 13 14 13 13 18 27 27 28 29 29 29 29 27 26 25 22 20 19 20 19 20 19 16 14 16
15 15 16 18 17 16 16 14 15 16 18 19 25 29 29 28 32 33 31 31 28 25 20 22 23 20 20 20 15 20 17 13
16 16 18 20 18 18 19 18 16 17 19 20 23 24 22 21 25 28 27 28 32 28 27 22 23 19 18 16 20 19 16 14
16 17 19 20 20 18 19 21 21 20 20 21 23 26 25 23 22 23 24 23 30 33 29 23 19 19 16 20 19 18 17 18
16 17 16 22 23 22 20 22 22 22 20 22 24 24 25 30 29 28 26 25 28 32 31 24 22 20 19 20 20 19 20 23
17 18 16 22 26 27 25 24 24 24 25 23 26 27 21 24 29 31 32 29 30 30 34 26 24 21 21 22 21 19 22 22
19 19 20 23 25 28 28 27 25 27 26 27 26 26 27 26 27 29 34 37 31 32 30 29 28 25 25 22 20 21 23 23
18 18 18 23 24 24 25 25 27 27 27 28 27 27 28 29 28 32 29 32 32 29 31 30 25 26 26 24 25 25 26 26
18 17 21 23 23 24 25 25 25 26 28 27 27 27 27 27 25 26 31 29 31 32 30 30 28 28 27 29 28 28 28 28
16 17 18 22 24 26 26 26 27 27 27 28 30 30 30 31 29 26 25 26 26 28 28 28 29 30 31 32 31 30 31 31
13 15 17 18 24 26 27 27 27 27 28 29 28 29 31 31 30 28 27 28 27 28 29 30 30 30 31 31 31 31 32 31
10 13 15 17 25 27 27 28 28 28 28 29 29 29 29 29 29 29 29 28 28 28 28 29 29 29 29 30 30 29 27 28
9 13 14 16 22 26 27 28 29 29 29 28 28 27 26 26 26 26 26 27 27 26 25 25 23 24 25 26 25 27 26 24
9 11 13 15 18 23 25 27 28 30 29 28 27 27 26 26 25 24 23 22 21 21 21 22 24 18 22 22 22 25 23 15
15 11 10 12 18 21 22 24 25 29 29 29 28 27 26 25 24 22 21 20 19 13 13 9 6 4 10 14 11 7 4 4
9 10 11 16 15 20 21 22 24 25 25 25 26 26 25 23 22 18 16 15 12 10 9 8 9 10 8 4 5 12 15 16

GFSFLT1_925_spd_099.txt.gz
Wind_Speed
23 27 29 24 19 13 12 12 12 10 11 12 11 13 17 21 30 39 41 39 41 39 44 36 39 36 31 36 32 28 27 25
25 28 31 25 19 17 15 15 13 12 11 13 17 20 21 27 28 40 41 33 39 41 44 37 41 37 34 34 32 28 26 28
17 25 26 25 22 18 17 15 13 11 15 13 14 23 26 31 33 37 40 35 31 36 37 34 36 37 37 32 31 28 20 27
18 17 23 28 23 23 20 18 14 13 13 14 16 24 23 24 31 31 39 33 32 36 37 37 34 34 35 32 32 28 24 25
16 16 19 25 24 23 22 21 19 15 14 17 22 20 21 22 31 35 35 35 32 35 35 38 38 31 31 30 28 29 29 26
21 19 24 27 27 24 23 22 23 19 16 17 21 17 18 26 27 36 38 35 33 32 36 35 34 33 30 29 29 28 24 23
18 20 27 26 28 26 23 23 24 24 22 19 22 24 25 25 26 29 31 31 33 27 25 27 31 30 28 29 27 23 24 21
19 19 16 25 28 26 25 24 21 27 24 26 24 30 33 31 31 27 28 28 28 30 30 27 28 31 29 25 25 23 26 26
19 20 18 26 28 27 26 27 23 27 27 26 25 31 30 28 32 28 30 34 37 36 33 34 38 35 33 28 24 26 27 29
18 18 20 27 28 28 28 28 26 27 25 29 26 30 28 28 32 33 32 29 28 28 35 37 35 32 29 28 28 29 31 28
17 18 17 28 31 30 28 29 27 27 27 28 28 30 32 29 30 31 30 30 29 30 37 37 39 32 29 28 28 27 30 32
18 17 22 29 30 31 31 30 28 30 29 26 27 30 32 31 32 33 33 33 34 33 37 37 38 37 36 33 31 30 36 33
14 18 17 24 28 30 31 28 29 30 34 27 28 29 34 35 35 34 34 34 38 39 40 39 40 42 43 39 33 33 33 33
5 15 17 17 25 28 30 30 28 32 33 34 29 31 34 34 36 38 36 35 37 39 38 41 40 40 38 40 41 40 37 36
9 12 17 17 28 30 32 33 34 32 34 33 34 33 33 35 34 34 38 38 37 40 39 38 37 38 39 40 38 39 37 32
18 10 3 17 22 26 29 32 36 36 35 33 34 32 33 32 33 34 36 34 34 35 35 34 36 35 35 36 37 33 31 25
18 20 18 17 18 26 31 32 35 37 34 35 32 33 33 34 35 34 36 33 30 34 35 33 30 33 33 32 30 23 20 17
16 16 16 18 23 13 30 32 34 35 34 32 35 34 33 32 31 32 31 33 32 29 29 27 22 19 15 21 21 18 16 16
15 14 18 26 27 24 10 23 37 35 33 32 32 34 35 32 33 34 33 32 30 25 21 20 20 15 14 16 19 20 23 24

GFSFLT1_925_spd_105.txt.gz
Wind_Speed
16 23 28 32 33 31 28 24 21 18 15 13 12 14 18 21 25 25 29 32 38 41 37 43 43 44 43 40 40 30 31 29
10 19 24 29 30 30 27 25 22 22 19 16 13 12 17 11 18 25 21 32 42 39 38 44 44 43 42 43 41 31 28 28
5 14 21 26 28 30 27 26 24 23 21 18 13 15 10 13 12 27 26 38 41 41 39 43 44 37 37 42 39 31 29 32
11 12 21 22 25 30 28 27 25 23 20 16 13 10 13 11 9 26 35 42 40 37 40 42 41 38 40 40 41 33 27 31
13 15 13 23 24 28 28 28 25 21 20 18 17 12 8 10 15 18 37 42 39 34 38 39 38 35 36 41 39 36 30 26
17 18 20 19 25 28 28 28 25 22 20 18 17 14 16 15 14 23 34 37 42 37 37 36 35 33 38 40 38 37 33 29
13 13 17 18 22 25 28 27 25 23 20 17 17 16 16 17 21 21 25 32 34 37 35 36 36 37 38 40 40 38 36 34
14 16 16 21 24 24 26 24 20 24 17 17 17 18 19 19 25 25 25 28 30 36 41 40 41 40 35 36 33 33 33 36
17 16 16 21 25 25 25 24 22 25 21 19 18 18 19 21 24 26 28 33 32 38 35 37 40 41 40 36 28 25 20 21
5 8 11 22 25 27 27 24 24 25 27 23 20 18 19 21 23 27 27 25 30 38 40 40 40 39 37 40 35 31 23 14
6 7 6 12 20 23 25 26 26 27 26 26 25 23 20 20 23 23 25 27 27 33 37 39 39 35 37 32 29 32 33 27
8 9 10 7 8 14 23 25 25 27 27 26 25 24 25 24 25 26 25 28 32 33 34 36 37 38 33 34 35 34 33 35
17 7 10 12 6 8 11 16 24 27 28 27 26 26 25 27 26 27 28 29 30 33 31 32 33 32 34 35 33 32 34 33
15 10 6 5 10 9 9 13 14 15 24 26 25 27 28 29 30 29 28 28 29 30 36 34 30 33 37 38 39 36 34 35
12 9 9 2 9 14 14 14 14 15 17 18 22 25 27 28 31 31 32 30 31 33 32 31 31 32 36 38 37 33 30 31
11 10 7 8 13 8 14 19 21 20 20 21 19 19 23 25 29 32 31 33 34 35 35 34 35 34 34 36 34 32 32 31
8 9 9 8 12 11 11 11 20 23 25 24 23 19 22 25 24 28 30 32 31 33 34 35 35 36 35 37 35 35 33 31
8 9 11 15 13 15 14 13 11 24 24 23 24 27 23 24 24 24 26 29 31 31 32 32 32 33 33 33 32 32 31 30
9 9 10 13 18 18 19 20 11 21 24 26 28 29 28 24 26 26 27 26 29 28 28 29 29 29 31 30 30 31 27 22

GFSFLT1_925_spd_108.txt.gz
Wind_Speed
13 20 24 27 31 29 32 32 28 23 21 18 19 19 21 23 28 29 30 34 39 41 32 35 39 40 37 40 41 31 29 29
4 10 17 23 27 31 34 33 27 25 22 22 21 20 20 23 24 24 32 33 39 40 37 40 40 40 40 44 41 34 28 33
5 10 16 19 19 27 33 31 29 28 23 24 17 19 17 21 16 23 32 29 40 32 42 40 42 38 40 43 39 31 27 35
8 9 15 19 23 25 29 31 28 29 26 22 14 16 11 15 16 22 29 30 37 40 42 40 40 41 42 43 45 34 25 31
8 10 11 22 19 22 29 27 21 28 26 23 20 14 9 15 16 16 28 32 37 39 40 39 39 38 40 41 43 34 34 27
12 13 15 22 23 29 29 24 22 26 25 20 17 13 16 12 18 16 28 36 39 39 39 37 37 38 41 41 44 33 38 31
10 7 15 18 21 24 25 23 24 24 22 17 18 14 15 14 16 17 25 29 29 39 36 36 35 37 41 43 44 35 38 36
6 9 12 19 24 24 23 24 23 24 21 17 17 17 15 20 19 20 21 26 28 33 34 32 32 33 38 40 43 39 34 36
8 5 5 13 20 22 22 24 21 21 21 20 16 16 16 19 21 25 20 26 30 37 36 35 32 26 29 33 36 34 33 31
15 4 5 13 17 19 19 20 19 21 22 20 18 16 16 18 19 24 27 23 30 36 37 38 41 38 30 27 27 25 26 25
15 7 4 12 16 18 18 17 15 15 15 14 18 16 15 17 19 21 25 28 30 32 33 35 38 41 44 40 34 32 29 28
19 4 5 10 14 17 17 16 14 13 14 19 16 15 13 15 18 20 23 26 29 32 36 37 37 39 41 38 33 35 37 33
15 7 4 8 13 14 13 12 12 13 14 18 19 19 18 16 16 20 21 23 24 28 28 31 36 36 36 38 36 34 36 35
15 13 7 1 8 13 16 15 14 13 17 17 17 18 19 20 19 19 20 22 25 28 29 29 30 39 36 35 38 37 35 38
11 12 12 13 3 8 15 18 19 19 18 19 19 19 19 20 22 22 22 22 24 25 29 31 31 29 34 34 34 33 34 34
9 9 8 11 17 14 2 11 18 22 21 23 24 23 22 20 18 23 24 23 25 27 27 28 30 30 29 29 29 32 32 29
3 7 9 10 15 17 17 12 14 20 24 25 25 24 24 25 23 21 23 25 26 25 26 27 29 30 32 31 32 35 32 31
8 8 9 14 17 16 16 17 12 13 20 22 24 26 25 26 26 25 24 25 25 26 27 28 29 31 31 30 30 31 32 30
9 9 12 16 19 23 25 13 14 8 8 18 23 25 24 26 26 26 26 26 28 27 28 28 29 29 29 28 28 27 26 23

GFSFLT1_925_spd_111.txt.gz
Wind_Speed
16 14 13 13 18 22 26 32 33 31 28 25 22 19 21 22 25 29 32 35 39 39 34 33 37 36 31 29 30 25 25 23
14 8 6 7 14 21 25 29 30 31 29 23 19 19 23 23 26 28 28 33 30 36 32 34 36 37 39 38 32 29 22 23
12 9 7 10 14 20 24 27 30 27 24 23 15 19 22 24 25 24 28 29 31 34 29 41 41 33 33 37 35 27 19 27
15 10 12 12 16 19 23 27 31 28 22 19 17 17 14 20 24 24 26 30 35 37 39 42 44 40 38 40 37 31 24 26
14 13 10 16 14 16 20 24 27 26 26 22 22 19 16 16 21 26 21 26 34 36 39 43 43 41 39 38 40 35 30 29
12 13 12 12 17 20 22 24 24 24 25 26 24 17 16 16 21 20 24 26 32 37 41 39 42 40 41 39 37 33 33 32
12 8 6 10 14 18 21 24 20 22 23 25 22 18 14 14 19 22 22 27 31 38 40 42 40 39 41 40 41 37 36 31
12 10 1 6 11 15 18 20 18 18 20 20 17 14 15 16 18 18 21 22 26 32 37 37 34 34 38 39 38 37 38 33
13 9 3 5 12 14 17 19 16 18 18 16 13 13 13 13 18 15 22 22 27 31 33 32 31 35 37 37 33 36 36 37
17 10 2 3 10 15 18 18 17 18 18 16 15 12 12 17 19 16 20 21 28 33 32 32 31 32 33 35 33 31 35 37
17 13 6 0 7 12 16 20 19 19 18 17 14 12 12 15 15 16 19 24 31 34 37 35 33 29 29 32 30 32 32 28
16 13 8 1 6 10 15 18 16 17 18 17 15 13 10 12 15 17 20 20 29 34 37 41 38 37 31 27 28 28 27 31
16 14 12 3 7 11 13 15 15 16 19 17 16 15 12 10 12 14 16 22 25 26 29 31 32 41 44 37 35 36 36 34
16 15 13 14 0 9 12 14 15 17 20 17 17 17 18 15 13 14 14 17 20 24 26 30 33 37 37 41 37 33 34 31
16 14 11 14 19 6 7 11 14 16 16 17 19 18 18 21 19 16 16 16 16 18 24 27 32 36 39 38 36 32 31 35
11 12 10 14 18 20 16 9 12 15 15 15 17 17 17 19 22 21 18 17 17 17 21 24 26 28 31 32 35 35 36 32
12 12 11 11 16 19 20 13 12 6 14 15 15 18 17 17 21 25 24 22 20 20 20 21 23 26 31 31 34 32 31 33
10 10 10 13 16 21 22 19 14 12 10 11 14 18 18 19 19 19 23 25 25 24 23 22 24 25 27 26 26 25 24 24
10 9 12 14 13 12 14 13 15 14 15 7 12 17 20 22 20 21 20 22 27 29 28 26 25 24 23 22 22 24 22 24

GFSFLT1_925_spd_114.txt.gz
Wind_Speed
20 19 16 15 14 17 23 28 29 29 26 23 19 16 17 22 24 27 28 31 35 34 31 25 32 31 27 30 30 28 27 26
23 19 16 12 10 15 23 26 29 31 30 28 22 21 21 20 20 25 28 32 36 38 37 34 36 32 30 31 31 30 27 25
18 16 16 12 12 15 22 25 29 29 28 26 18 21 20 20 20 24 26 30 35 34 35 37 36 33 30 32 32 30 28 29
13 13 16 15 15 18 21 25 29 27 26 23 18 17 13 19 19 22 27 30 32 35 35 35 43 38 33 35 34 34 28 29
12 13 13 14 15 15 18 23 28 28 28 25 24 22 17 18 20 19 23 25 25 32 35 35 38 42 39 38 37 35 32 30
8 9 12 10 13 15 18 23 26 26 28 23 22 18 14 14 19 20 21 20 26 30 35 38 42 43 40 42 37 34 33 31
5 4 4 8 13 15 19 23 25 24 25 21 20 19 16 15 17 17 17 18 24 29 31 38 41 43 42 45 43 37 33 32
7 5 1 7 11 14 17 24 24 23 23 21 20 18 16 17 18 20 16 21 23 27 33 37 38 37 43 45 42 39 34 32
9 7 3 4 8 12 16 21 21 23 23 22 20 16 15 17 17 15 16 21 26 29 35 36 38 39 44 43 40 39 36 33
10 9 7 5 4 9 14 17 18 20 22 20 18 15 16 15 13 12 17 17 22 25 30 31 31 35 35 38 36 35 32 30
9 9 8 7 1 7 12 14 17 17 19 18 16 14 14 12 12 10 14 18 21 24 27 29 31 34 35 33 31 31 31 28
11 10 10 8 2 4 9 12 15 17 17 16 14 13 13 11 11 10 13 19 24 26 28 30 30 31 35 30 29 32 31 28
13 13 12 18 5 4 9 11 13 15 14 14 14 13 13 10 9 10 15 21 25 29 29 30 31 29 32 32 31 31 30 28
12 13 13 14 21 4 8 10 11 12 14 14 13 15 14 12 11 10 11 19 24 28 31 30 30 29 34 32 30 30 29 31
12 13 13 15 17 18 20 2 9 11 13 14 14 16 16 14 12 12 12 13 21 25 30 32 32 35 35 35 33 33 30 29
11 12 11 13 15 15 16 20 18 6 15 14 14 16 16 14 14 13 13 14 15 20 24 28 32 33 34 33 33 32 28 25
10 12 11 11 14 13 13 16 20 14 3 13 14 15 15 16 16 15 14 14 15 16 17 25 27 28 33 35 36 33 33 29
10 11 9 12 13 10 11 16 19 17 13 5 10 14 16 17 16 16 16 15 15 15 16 19 20 25 28 30 35 33 33 33
10 9 11 13 14 16 15 15 14 16 16 14 12 3 15 17 16 16 17 17 17 16 17 17 18 22 22 26 29 30 32 32

GFSFLT1_925_spd_117.txt.gz
Wind_Speed
18 21 23 22 20 18 18 23 28 29 26 26 25 22 24 21 20 20 21 21 22 23 24 23 24 27 26 28 29 33 28 26
19 22 22 22 19 17 19 22 28 29 30 29 25 24 22 19 18 18 20 20 22 23 23 22 27 28 29 32 30 34 27 25
19 21 22 22 18 19 20 23 27 30 30 26 23 24 20 18 18 19 19 22 21 22 22 23 29 28 33 37 31 27 25 24
20 18 21 18 22 22 21 23 27 28 28 25 24 20 13 16 16 18 20 21 27 28 29 27 29 28 34 36 35 33 26 28
16 12 13 20 22 20 20 22 26 27 30 28 29 24 18 19 18 20 20 22 22 27 32 33 32 35 33 39 34 36 33 28
11 13 14 19 20 18 19 21 26 27 30 30 28 25 20 17 18 17 19 20 23 28 32 35 32 37 40 41 38 33 35 32
5 5 5 12 11 13 14 19 24 26 28 29 28 25 20 18 18 17 18 20 21 26 31 33 36 36 33 45 46 40 32 32
1 2 1 3 10 10 11 17 21 22 26 27 25 22 19 18 17 17 16 16 16 21 25 32 35 39 40 37 42 41 36 33
6 6 4 2 3 9 11 16 16 18 21 23 21 19 18 16 16 15 16 18 16 17 27 28 33 38 40 44 40 42 42 34
8 9 7 7 1 4 8 12 15 17 20 21 20 19 17 16 15 14 15 12 12 15 22 27 32 39 42 41 39 42 42 36
7 8 8 7 2 3 6 9 12 16 21 20 20 19 17 13 13 10 11 11 13 15 18 23 29 32 36 39 34 37 38 36
9 7 9 11 6 1 5 8 10 15 18 18 17 16 15 13 12 11 11 11 13 15 16 21 26 28 29 33 31 31 37 36
10 10 10 12 14 8 2 7 8 13 10 12 12 13 13 13 11 11 10 14 14 15 16 22 25 27 29 28 28 28 34 35
11 12 13 12 13 14 19 2 5 9 12 12 11 13 13 12 11 10 11 15 17 17 21 24 26 26 28 27 26 27 27 28
11 10 11 13 14 13 14 17 20 8 11 11 12 13 12 13 13 12 12 15 19 22 25 25 25 26 29 31 30 30 27 27
10 10 10 10 13 15 14 15 17 18 10 9 13 13 15 16 14 13 12 14 20 22 26 27 28 26 26 30 28 27 26 26
10 9 10 9 11 12 13 15 16 17 16 17 14 13 14 13 12 13 14 13 16 22 25 27 29 31 31 31 29 30 28 27
9 9 8 10 10 9 12 14 15 17 17 19 23 7 13 9 12 14 13 15 15 20 21 25 26 29 33 37 34 29 30 30
9 9 10 12 11 10 10 12 13 14 17 17 22 17 8 6 13 12 15 14 14 15 14 16 23 26 26 28 31 32 29 30

GFSFLT1_925_spd_123.txt.gz
Wind_Speed
31 32 37 39 40 38 45 47 43 45 41 37 36 31 25 27 30 31 25 29 30 32 32 30 31 32 30 33 32 30 29 29
27 31 37 38 40 41 42 40 40 39 35 32 31 34 34 26 28 29 32 28 31 31 31 29 33 35 35 36 34 31 25 30
8 11 27 33 32 28 37 42 44 40 40 35 27 30 33 33 28 27 26 28 29 31 31 32 35 33 33 36 34 25 20 33
9 7 9 14 18 21 33 38 44 39 33 30 21 25 24 28 29 27 27 28 28 29 30 32 35 35 35 37 37 32 23 29
9 11 8 12 15 22 34 35 39 39 39 34 35 29 20 20 23 26 28 27 27 29 29 30 35 35 32 36 39 35 29 28
12 10 9 20 21 28 35 34 35 37 39 38 37 27 23 21 23 26 27 29 30 24 27 29 32 34 32 35 36 34 34 31
12 6 9 11 12 24 31 29 26 36 41 37 35 30 26 22 24 25 26 27 29 28 28 31 31 34 33 34 36 37 37 31
9 12 11 15 21 21 19 17 12 27 34 34 35 34 28 29 29 30 30 27 26 28 29 33 31 32 34 35 33 34 37 36
15 14 14 16 19 18 15 10 12 8 21 29 31 30 29 30 30 29 31 31 29 25 27 29 31 34 32 33 35 34 38 39
16 16 14 17 21 18 12 10 9 1 10 22 25 25 27 27 26 29 31 30 27 23 30 30 31 33 35 35 33 36 38 39
15 13 13 21 22 18 13 8 6 1 5 6 12 14 19 16 20 20 20 23 22 22 23 25 29 33 35 34 33 35 35 36
13 15 17 19 19 18 15 13 8 5 2 4 6 8 13 14 14 13 14 17 19 22 22 21 24 28 30 34 33 33 36 31
17 13 12 14 12 14 16 15 14 9 3 3 5 9 14 14 15 14 15 15 16 16 17 20 23 27 29 31 32 32 34 36
13 12 11 10 11 14 15 17 14 12 8 2 1 5 12 15 15 12 15 16 15 13 16 18 20 22 24 26 29 29 30 32
12 9 10 11 13 16 16 17 17 15 13 11 8 4 5 9 11 13 17 17 14 15 16 17 19 18 19 20 23 25 26 27
17 9 9 9 12 15 17 19 21 19 17 14 13 9 1 4 8 15 17 16 15 15 16 16 16 17 17 19 20 22 23 24
19 16 11 8 11 13 15 18 22 22 21 19 15 12 7 3 11 15 18 17 16 16 16 16 17 17 16 17 17 20 19 19
15 16 12 13 12 14 15 18 21 23 21 21 20 16 11 8 6 1 19 19 17 18 16 19 20 18 16 17 18 16 13 17
14 13 18 19 20 17 19 19 19 19 20 20 21 20 16 13 9 6 8 15 18 17 19 21 20 20 18 17 18 17 13 11

GFSFLT1_925_spd_129.txt.gz
Wind_Speed
22 22 29 35 39 38 41 41 45 44 36 33 32 32 35 36 37 37 36 35 35 34 32 32 28 28 31 29 28 23 24 24
31 32 22 27 33 40 43 41 41 38 33 32 30 33 39 38 37 38 36 36 36 36 35 32 31 31 33 32 28 25 22 22
20 27 22 22 24 33 43 42 41 44 39 40 32 34 31 33 33 35 36 38 38 38 37 35 33 32 32 32 32 23 18 27
21 21 25 28 21 27 39 40 41 45 40 35 23 25 20 25 31 36 40 41 41 39 38 35 34 34 34 34 34 29 22 25
18 20 20 21 29 24 28 37 40 43 41 36 38 38 29 29 35 32 34 40 40 40 37 37 33 35 34 36 36 34 27 23
20 20 20 22 30 15 20 28 39 39 41 41 40 33 32 24 28 29 32 38 39 40 36 37 36 36 36 37 35 34 35 28
17 18 24 14 9 21 15 25 33 37 41 40 39 36 31 27 27 27 29 30 34 38 34 35 35 36 35 35 35 35 35 31
9 10 11 4 13 5 12 22 23 30 34 34 35 33 35 34 31 29 29 29 29 33 35 34 34 34 33 33 34 34 34 32
7 3 6 10 15 17 13 19 19 21 25 26 29 30 32 32 32 31 31 33 33 38 36 34 33 32 32 31 32 34 34 35
11 9 10 14 22 22 21 17 19 21 24 23 28 30 32 32 32 32 33 35 36 36 35 35 34 32 31 29 31 33 32 33
11 9 11 18 22 24 26 19 20 21 17 17 22 25 25 27 30 32 32 33 32 32 31 33 32 31 29 29 29 29 30 32
9 7 15 20 22 22 22 23 24 24 18 16 10 12 19 21 26 30 31 30 31 28 28 29 30 29 29 30 31 30 31 31
9 9 14 23 21 20 23 23 25 21 17 15 13 7 8 18 22 26 28 28 27 28 27 29 30 31 30 30 29 28 29 28
12 16 17 19 24 19 26 25 22 23 20 19 17 9 6 7 16 22 22 24 26 28 26 28 25 24 24 23 24 24 27 29
14 15 15 24 26 23 26 25 26 24 22 20 17 15 12 1 9 14 16 19 23 25 24 24 24 21 19 19 22 22 24 26
18 15 14 20 20 23 25 26 27 23 22 23 21 16 13 11 6 11 21 22 22 22 24 22 21 17 17 19 20 20 22 22
15 17 17 18 21 21 22 23 25 24 24 23 23 20 16 14 11 6 10 23 23 21 22 21 19 17 18 16 17 18 17 17
17 17 17 23 21 22 23 23 22 23 23 25 26 24 22 19 14 9 8 3 16 18 18 19 18 18 16 16 16 16 15 14
16 15 20 20 22 24 23 24 21 21 22 24 26 25 23 20 17 15 11 8 5 13 20 18 19 18 15 14 14 15 13 13

GFSFLT1_925_spd_132.txt.gz
Wind_Speed
28 32 28 33 35 38 37 40 39 44 42 36 34 30 27 28 29 30 31 35 37 34 32 29 29 26 25 26 24 22 21 20
32 31 30 30 36 37 37 36 38 34 33 32 31 33 32 31 32 29 33 34 37 37 34 31 29 29 27 28 26 24 18 19
24 26 25 29 34 37 33 34 35 40 35 39 33 34 31 30 29 31 31 35 36 39 38 35 32 30 27 30 31 25 20 23
25 24 27 30 34 39 39 35 37 41 39 32 24 26 19 24 28 32 36 37 37 38 38 37 34 32 32 31 34 31 21 23
21 23 22 30 35 39 39 39 38 42 38 35 36 37 29 30 38 34 35 37 39 38 39 38 36 33 30 31 34 35 28 20
21 21 23 33 35 36 38 36 33 32 37 40 39 36 35 31 30 31 33 36 40 39 39 37 36 37 34 33 33 34 33 25
17 18 29 30 30 28 28 28 28 32 36 39 41 38 32 27 29 30 32 31 37 39 39 40 39 37 35 34 33 34 36 32
9 8 9 12 18 26 29 32 25 27 35 36 38 36 34 36 35 33 31 29 30 36 39 38 38 38 36 36 35 34 34 34
14 13 11 8 6 10 17 17 20 28 31 33 31 29 28 29 33 33 33 32 33 35 41 38 37 35 35 35 36 36 35 33
18 19 16 18 19 16 9 18 13 23 25 28 29 29 26 27 31 34 32 30 30 34 37 39 38 35 33 33 33 33 32 32
18 20 19 21 25 22 24 28 27 11 11 23 27 26 31 30 31 33 33 31 31 32 34 35 34 35 32 32 30 30 30 29
18 21 23 20 28 30 31 35 29 21 12 13 19 22 21 18 21 25 30 30 29 31 34 33 33 31 30 31 28 27 27 28
21 22 24 20 26 28 31 31 27 29 25 26 19 11 6 9 17 18 24 27 28 30 31 30 29 29 26 26 25 25 26 26
20 19 19 19 26 31 31 32 30 25 25 26 23 18 10 3 16 23 25 25 26 27 27 30 29 28 28 27 27 25 26 26
17 13 16 26 29 28 31 33 33 27 28 26 24 21 13 9 3 9 16 19 22 24 27 31 30 29 27 25 24 24 23 23
19 19 18 27 31 34 31 30 24 22 25 26 26 22 18 14 11 6 5 12 16 21 26 25 23 23 22 21 19 19 21 22
18 17 19 22 29 29 28 26 28 27 26 26 25 25 23 21 17 14 10 3 11 17 21 20 21 20 20 19 18 20 20 19
17 17 16 24 27 26 25 26 25 26 25 26 27 27 25 24 22 18 17 13 4 9 13 15 16 18 17 19 18 17 17 16
16 17 23 26 26 24 24 26 25 24 24 24 26 25 24 25 23 22 20 16 12 6 5 13 14 15 14 17 17 16 15 14

GFSFLT1_925_spd_135.txt.gz
Wind_Speed
38 36 31 33 34 37 35 29 29 36 34 29 28 29 30 31 35 28 27 37 34 33 29 27 30 28 26 24 20 17 16 16
35 41 38 32 36 35 37 30 28 31 32 32 32 34 32 30 33 34 30 32 38 34 31 29 31 31 29 25 18 19 14 15
27 33 39 35 34 36 35 32 25 31 33 37 34 35 33 34 30 32 33 33 37 41 35 35 33 28 26 27 23 17 11 22
32 26 31 38 33 35 38 36 29 31 36 31 24 25 19 25 28 31 38 37 36 38 36 38 36 32 32 32 26 25 17 21
30 31 26 32 39 34 38 36 33 31 34 31 32 32 29 32 38 39 34 37 39 40 35 37 37 35 31 33 30 27 23 20
34 28 32 34 38 30 37 35 33 30 33 36 39 36 35 28 28 30 33 34 39 39 39 35 37 36 33 34 32 26 27 23
26 31 33 22 27 30 34 30 32 29 34 39 39 38 31 27 29 30 32 35 36 39 39 37 37 36 35 35 33 31 27 25
22 25 24 29 18 27 30 28 31 29 36 38 37 35 33 33 33 32 31 31 33 39 42 38 38 39 37 37 35 32 31 30
25 26 24 29 30 18 15 21 24 23 32 35 37 35 33 34 33 33 33 33 36 40 40 38 36 39 37 36 35 34 29 31
25 26 34 35 35 30 21 2 11 16 25 29 31 32 32 31 28 29 31 31 29 31 38 36 35 36 35 36 35 34 33 33
23 22 33 37 35 33 36 29 21 11 11 20 24 26 27 23 23 26 28 28 32 33 35 34 33 34 35 35 32 33 33 32
21 20 36 37 35 36 32 28 25 25 18 8 13 12 17 22 24 26 25 27 28 29 34 35 33 33 34 31 30 31 32 30
21 22 34 38 36 34 32 30 25 20 23 25 24 20 11 11 15 16 19 20 19 21 24 27 30 31 33 32 31 31 30 29
21 21 21 29 32 32 31 31 28 29 30 32 23 24 15 14 2 14 18 18 13 12 15 17 21 27 31 32 30 29 28 27
19 19 19 27 33 33 35 35 33 32 38 33 26 30 20 13 11 5 3 5 5 13 29 30 29 28 30 30 28 27 26 24
19 19 18 26 31 33 37 37 39 37 34 27 29 29 23 18 17 12 7 5 15 23 25 27 28 29 28 28 26 23 21 23
19 18 19 22 27 33 36 31 33 29 29 28 28 28 23 23 20 17 13 8 7 16 22 24 23 26 26 26 20 21 19 20
17 17 21 25 28 27 26 27 27 30 28 27 30 29 29 26 23 19 16 13 9 6 9 15 19 20 19 19 16 15 15 15
19 21 22 24 25 27 25 25 25 25 26 27 29 27 24 22 20 20 19 16 14 8 8 2 7 8 8 10 13 15 15 17

GFSFLT1_925_spd_138.txt.gz
Wind_Speed
26 30 36 44 39 35 36 33 32 30 29 31 33 34 33 31 31 30 29 36 31 28 24 24 25 24 23 21 18 20 18 16
30 35 35 46 48 41 38 37 34 33 33 33 34 35 34 34 33 30 30 32 33 32 28 26 27 27 25 23 21 22 20 19
29 34 43 43 41 44 43 38 36 34 35 34 36 36 36 35 32 32 33 33 37 35 33 30 29 26 26 25 23 22 19 21
28 33 41 39 46 38 41 40 39 35 35 36 34 30 28 31 34 35 35 35 38 38 36 32 29 28 28 29 28 26 20 22
27 30 37 36 39 45 44 42 38 35 35 35 36 32 31 32 34 34 36 36 37 42 36 34 32 31 28 31 30 29 26 20
28 27 38 40 40 44 45 37 36 36 35 38 35 36 33 43 26 33 33 34 35 38 40 36 34 32 30 31 31 31 29 23
24 35 38 39 44 44 46 34 33 36 35 37 38 37 34 29 43 33 31 31 37 38 38 39 38 35 34 33 32 31 29 27
25 26 29 38 42 43 39 29 30 34 32 37 39 38 38 38 33 30 28 29 33 38 41 40 40 39 36 33 33 30 31 28
26 24 31 36 41 42 39 35 23 26 30 34 36 38 33 31 26 21 29 31 35 37 40 39 38 36 35 35 32 31 31 31
28 28 35 37 41 39 37 38 31 15 25 27 31 33 30 28 27 30 28 32 31 32 38 38 39 37 36 35 31 31 30 30
24 24 37 39 46 45 46 44 34 26 13 16 23 25 26 25 27 28 30 28 26 27 32 35 34 34 34 36 32 28 29 30
21 24 38 37 45 45 42 40 37 34 33 22 9 10 18 22 21 23 22 20 22 25 31 34 34 35 36 34 31 27 27 27
22 27 33 35 43 45 42 42 39 35 31 30 30 23 15 10 7 15 18 20 23 24 28 30 29 30 29 29 28 26 27 27
21 23 26 32 37 39 37 37 37 35 31 31 30 25 24 20 15 5 12 18 20 20 23 23 25 25 26 30 26 25 29 30
18 18 23 30 30 32 33 35 34 32 29 28 27 25 22 18 16 10 6 8 15 15 17 18 18 21 24 26 26 25 25 29
18 17 17 28 30 30 27 30 33 32 31 29 26 23 23 17 15 13 8 2 8 14 16 15 18 18 20 24 24 23 22 24
19 17 21 24 27 31 35 31 30 25 32 33 28 27 34 26 22 16 13 10 6 3 8 11 13 18 23 26 22 25 20 17
19 17 22 27 31 31 30 31 33 36 28 23 28 38 32 31 25 20 19 14 12 10 10 5 5 8 14 24 34 26 23 17
19 23 25 26 27 29 26 26 25 21 23 26 28 21 22 26 24 22 20 17 14 14 14 15 12 8 8 18 16 21 18 13